M I D A S
Marine Information and Data Acquisition System
Tripno 965 of the Zeeleeuw from 2005-10-03 08:26:36 to 2005-10-03 16:56:54
Back to CruiseResearch ActivitiesStationsMapUnderway DataData graphs

EquipmentUnitsComment
TimeDGPSUTC
LatitudeDGPSDM.mWGS84
LongitudeDGPSDM.mWGS84
TemperatureSBE03/SBE38deg celciusITS90
ConductivitySBE21S/mITS90
SalinitySBE21 Practical Salinity Units
ChlorophylAChelsea fluorimeterg/lCalibrated in Aceton
Missing or incorrect values are displayed as -999
Sea surface data collected by the RV Zeeleeuw from 2005-10-03 08:24:20 to 2005-10-03 16:57:11
                                                                                    Next 1000 lines
Time Latitude Longitude Temperature Conductivity Salinity ChlorophylA
2005-10-03 08:24:30 51°13.602 2°56.095 -999 0.056954 0.322115 -0.71383
2005-10-03 08:24:34 51°13.603 2°56.093 -999 0.056954 0.322115 -0.71383
2005-10-03 08:24:40 51°13.604 2°56.089 -999 0.056954 0.322115 -0.71383
2005-10-03 08:24:45 51°13.605 2°56.085 -999 0.056954 0.322115 -0.71383
2005-10-03 08:24:50 51°13.606 2°56.081 -999 0.056954 0.322115 -0.71383
2005-10-03 08:24:55 51°13.608 2°56.076 -999 0.056954 0.322115 -0.71383
2005-10-03 08:25:01 51°13.609 2°56.071 -999 0.056954 0.322115 -0.71383
2005-10-03 08:25:05 51°13.61 2°56.067 -999 0.056954 0.322115 -0.71383
2005-10-03 08:25:10 51°13.612 2°56.062 -999 0.056954 0.322115 -0.71383
2005-10-03 08:25:15 51°13.613 2°56.056 -999 0.056954 0.322121 -0.71383
2005-10-03 08:25:20 51°13.615 2°56.051 -999 0.056954 0.322121 -0.71383
2005-10-03 08:25:25 51°13.616 2°56.045 -999 0.056954 0.322121 -0.71383
2005-10-03 08:25:30 51°13.618 2°56.039 -999 0.056954 0.322121 -0.71383
2005-10-03 08:25:35 51°13.619 2°56.033 -999 0.056954 0.322121 -0.71383
2005-10-03 08:25:40 51°13.621 2°56.026 -999 0.056954 0.322121 -0.71383
2005-10-03 08:25:46 51°13.622 2°56.018 -999 0.056954 0.322121 -0.71383
2005-10-03 08:25:50 51°13.623 2°56.012 -999 0.056954 0.322127 -0.71383
2005-10-03 08:25:55 51°13.625 2°56.005 -999 0.056954 0.322127 -0.71383
2005-10-03 08:26:00 51°13.626 2°55.998 -999 0.056954 0.322127 -0.71383
2005-10-03 08:26:05 51°13.628 2°55.99 -999 0.056954 0.322127 -0.71383
2005-10-03 08:26:10 51°13.629 2°55.983 -999 0.056954 0.322127 -0.71383
2005-10-03 08:26:15 51°13.631 2°55.975 -999 0.056954 0.322121 -0.71383
2005-10-03 08:26:20 51°13.633 2°55.967 -999 0.056954 0.322127 -0.71383
2005-10-03 08:26:25 51°13.635 2°55.959 -999 0.056954 0.322127 -0.71383
2005-10-03 08:26:30 51°13.638 2°55.951 -999 0.056954 0.322127 -0.71383
2005-10-03 08:26:35 51°13.641 2°55.943 -999 0.056954 0.322127 -0.71383
2005-10-03 08:26:41 51°13.644 2°55.934 -999 0.056954 0.322127 -0.71383
2005-10-03 08:26:45 51°13.646 2°55.927 -999 0.056954 0.322127 -0.71383
2005-10-03 08:26:50 51°13.649 2°55.919 -999 0.056954 0.322127 -0.71383
2005-10-03 08:26:56 51°13.653 2°55.91 -999 0.056954 0.322127 -0.71383
2005-10-03 08:27:00 51°13.656 2°55.903 -999 0.056954 0.322133 -0.71383
2005-10-03 08:27:05 51°13.659 2°55.895 -999 0.056954 0.322133 -0.71383
2005-10-03 08:27:10 51°13.662 2°55.887 -999 0.056954 0.322133 -0.71383
2005-10-03 08:27:15 51°13.665 2°55.879 -999 0.056954 0.322139 -0.71383
2005-10-03 08:27:21 51°13.669 2°55.869 -999 0.056954 0.322139 -0.71383
2005-10-03 08:27:25 51°13.672 2°55.863 -999 0.056954 0.322145 -0.71383
2005-10-03 08:27:30 51°13.675 2°55.854 -999 0.056954 0.322145 -0.71383
2005-10-03 08:27:35 51°13.678 2°55.846 -999 0.056954 0.322145 -0.71383
2005-10-03 08:27:41 51°13.682 2°55.836 -999 0.056954 0.322145 -0.71383
2005-10-03 08:27:46 51°13.685 2°55.828 -999 0.056954 0.322145 -0.71383
2005-10-03 08:27:50 51°13.687 2°55.821 -999 0.056954 0.322151 -0.71383
2005-10-03 08:27:55 51°13.69 2°55.812 -999 0.056954 0.322151 -0.71383
2005-10-03 08:28:00 51°13.693 2°55.804 -999 0.056954 0.322151 -0.71383
2005-10-03 08:28:05 51°13.695 2°55.795 -999 0.056954 0.322151 -0.71383
2005-10-03 08:28:10 51°13.698 2°55.787 -999 0.056954 0.322151 -0.71383
2005-10-03 08:28:15 51°13.7 2°55.778 -999 0.056954 0.322151 -0.71383
2005-10-03 08:28:20 51°13.702 2°55.77 -999 0.056954 0.322151 -0.71383
2005-10-03 08:28:26 51°13.704 2°55.761 -999 0.056954 0.322151 -0.71383
2005-10-03 08:28:30 51°13.705 2°55.756 -999 0.056954 0.322151 -0.71383
2005-10-03 08:28:35 51°13.706 2°55.751 -999 0.056954 0.322157 -0.71383
2005-10-03 08:28:40 51°13.707 2°55.748 -999 0.056954 0.322157 -0.71383
2005-10-03 08:28:45 51°13.707 2°55.747 -999 0.056954 0.322151 -0.71383
2005-10-03 08:28:50 51°13.708 2°55.747 -999 0.056954 0.322151 -0.71383
2005-10-03 08:28:54 51°13.708 2°55.749 -999 0.056954 0.322157 -0.71383
2005-10-03 08:29:00 51°13.709 2°55.753 -999 0.056954 0.322163 -0.71383
2005-10-03 08:29:05 51°13.71 2°55.755 -999 0.056954 0.322163 -0.71383
2005-10-03 08:29:10 51°13.71 2°55.755 -999 0.056954 0.322163 -0.71383
2005-10-03 08:29:14 51°13.71 2°55.755 -999 0.056954 0.322157 -0.71383
2005-10-03 08:29:20 51°13.709 2°55.752 -999 0.056954 0.322145 -0.71383
2005-10-03 08:29:25 51°13.709 2°55.749 -999 0.056954 0.322139 -0.71383
2005-10-03 08:29:30 51°13.707 2°55.746 -999 0.056954 0.322133 -0.71383
2005-10-03 08:29:35 51°13.706 2°55.742 -999 0.056954 0.322127 -0.71383
2005-10-03 08:29:41 51°13.704 2°55.738 -999 0.056954 0.322127 -0.71383
2005-10-03 08:29:46 51°13.703 2°55.734 -999 0.056954 0.322127 -0.71383
2005-10-03 08:29:50 51°13.702 2°55.733 -999 0.056954 0.322133 -0.71383
2005-10-03 08:29:54 51°13.702 2°55.733 -999 0.056954 0.322139 -0.71383
2005-10-03 08:30:00 51°13.703 2°55.733 -999 0.056954 0.322151 -0.71383
2005-10-03 08:30:06 51°13.705 2°55.735 -999 0.056954 0.322163 -0.71383
2005-10-03 08:30:10 51°13.707 2°55.736 -999 0.056954 0.322163 -0.71383
2005-10-03 08:30:15 51°13.71 2°55.738 -999 0.056954 0.322169 -0.71383
2005-10-03 08:30:20 51°13.714 2°55.739 -999 0.056954 0.32218 -0.71383
2005-10-03 08:30:25 51°13.718 2°55.739 -999 0.056954 0.322186 -0.71383
2005-10-03 08:30:30 51°13.723 2°55.737 -999 0.056954 0.322192 -0.71383
2005-10-03 08:30:35 51°13.728 2°55.734 -999 0.056954 0.322198 -0.71383
2005-10-03 08:30:40 51°13.733 2°55.73 -999 0.056954 0.322198 -0.71383
2005-10-03 08:30:45 51°13.738 2°55.726 -999 0.056954 0.322186 -0.71383
2005-10-03 08:30:50 51°13.743 2°55.721 -999 0.056954 0.32218 -0.71383
2005-10-03 08:30:55 51°13.749 2°55.715 -999 0.056954 0.322163 -0.71383
2005-10-03 08:31:00 51°13.755 2°55.709 -999 0.056954 0.322157 -0.71383
2005-10-03 08:31:05 51°13.762 2°55.703 -999 0.056954 0.322151 -0.71383
2005-10-03 08:31:10 51°13.769 2°55.695 -999 0.056954 0.322151 -0.71383
2005-10-03 08:31:14 51°13.775 2°55.689 -999 0.056954 0.322151 -0.71383
2005-10-03 08:31:20 51°13.784 2°55.68 -999 0.056954 0.322151 -0.71383
2005-10-03 08:31:25 51°13.792 2°55.672 -999 0.056954 0.322157 -0.71383
2005-10-03 08:31:30 51°13.8 2°55.664 -999 0.056954 0.322157 -0.71383
2005-10-03 08:31:35 51°13.809 2°55.656 -999 0.056954 0.322169 -0.71383
2005-10-03 08:31:40 51°13.818 2°55.648 -999 0.056954 0.322169 -0.71383
2005-10-03 08:31:45 51°13.827 2°55.641 -999 0.056954 0.322169 -0.71383
2005-10-03 08:31:50 51°13.836 2°55.633 -999 0.056954 0.32218 -0.71383
2005-10-03 08:31:54 51°13.844 2°55.627 -999 0.056954 0.32218 -0.71383
2005-10-03 08:32:00 51°13.856 2°55.617 -999 0.056954 0.322186 -0.71383
2005-10-03 08:32:04 51°13.864 2°55.611 -999 0.056954 0.322186 -0.71383
2005-10-03 08:32:10 51°13.876 2°55.602 -999 0.056954 0.322186 -0.71383
2005-10-03 08:32:15 51°13.886 2°55.594 -999 0.056954 0.322186 -0.71383
2005-10-03 08:32:20 51°13.896 2°55.586 -999 0.056954 0.322192 -0.71383
2005-10-03 08:32:25 51°13.907 2°55.578 -999 0.056954 0.322192 -0.71383
2005-10-03 08:32:30 51°13.917 2°55.569 -999 0.056954 0.322192 -0.71383
2005-10-03 08:32:34 51°13.926 2°55.563 -999 0.056954 0.322198 -0.71383
2005-10-03 08:32:40 51°13.938 2°55.553 -999 0.056954 0.322198 -0.71383
2005-10-03 08:32:45 51°13.949 2°55.545 -999 0.056954 0.322198 -0.71383
2005-10-03 08:32:50 51°13.96 2°55.538 -999 0.056954 0.322204 -0.71383
2005-10-03 08:32:54 51°13.969 2°55.532 -999 0.056954 0.322204 -0.71383
2005-10-03 08:33:00 51°13.982 2°55.523 -999 0.056954 0.32221 -0.71383
2005-10-03 08:33:04 51°13.991 2°55.517 -999 0.056954 0.32221 -0.71383
2005-10-03 08:33:10 51°14.004 2°55.508 -999 0.056954 0.32221 -0.71383
2005-10-03 08:33:14 51°14.013 2°55.501 -999 0.056954 0.322216 -0.71383
2005-10-03 08:33:20 51°14.026 2°55.492 -999 0.056954 0.322216 -0.71383
2005-10-03 08:33:25 51°14.037 2°55.484 -999 0.056954 0.322216 -0.71383
2005-10-03 08:33:30 51°14.048 2°55.477 -999 0.056954 0.322216 -0.71383
2005-10-03 08:33:34 51°14.058 2°55.47 -999 0.056954 0.322222 -0.71383
2005-10-03 08:33:40 51°14.071 2°55.46 -999 0.056954 0.322222 -0.71383
2005-10-03 08:33:45 51°14.083 2°55.451 -999 0.056954 0.322222 -0.71383
2005-10-03 08:33:50 51°14.095 2°55.442 -999 0.056954 0.322222 -0.71383
2005-10-03 08:33:54 51°14.104 2°55.435 -999 0.056954 0.322228 -0.71383
2005-10-03 08:34:00 51°14.119 2°55.424 -999 0.056954 0.322234 -0.71383
2005-10-03 08:34:05 51°14.131 2°55.414 -999 0.056954 0.32224 -0.71383
2005-10-03 08:34:10 51°14.143 2°55.404 -999 0.056954 0.32224 -0.71383
2005-10-03 08:34:14 51°14.153 2°55.395 -999 0.056954 0.32224 -0.71383
2005-10-03 08:34:20 51°14.167 2°55.382 -999 0.056954 0.32224 -0.71383
2005-10-03 08:34:25 51°14.179 2°55.371 -999 0.056954 0.32224 -0.71383
2005-10-03 08:34:30 51°14.19 2°55.359 -999 0.056954 0.322246 -0.71383
2005-10-03 08:34:34 51°14.199 2°55.349 -999 0.056954 0.322246 -0.71383
2005-10-03 08:34:40 51°14.213 2°55.333 -999 0.056954 0.322246 -0.71383
2005-10-03 08:34:44 51°14.221 2°55.322 -999 0.056954 0.322246 -0.71383
2005-10-03 08:34:50 51°14.234 2°55.305 -999 0.056954 0.322246 -0.71383
2005-10-03 08:34:54 51°14.242 2°55.293 -999 0.056954 0.322246 -0.71383
2005-10-03 08:35:00 51°14.254 2°55.274 -999 0.056954 0.322252 -0.71383
2005-10-03 08:35:04 51°14.261 2°55.261 -999 0.056954 0.322246 -0.71383
2005-10-03 08:35:10 51°14.272 2°55.241 -999 0.056954 0.322246 -0.71383
2005-10-03 08:35:15 51°14.282 2°55.223 -999 0.056954 0.322252 -0.71383
2005-10-03 08:35:20 51°14.29 2°55.205 -999 0.056954 0.322252 -0.71383
2005-10-03 08:35:25 51°14.3 2°55.187 -999 0.056954 0.322258 -0.71383
2005-10-03 08:35:30 51°14.308 2°55.168 -999 0.056954 0.322252 -0.71383
2005-10-03 08:35:34 51°14.316 2°55.153 -999 0.056954 0.322258 -0.71383
2005-10-03 08:35:40 51°14.327 2°55.131 -999 0.056954 0.322258 -0.71383
2005-10-03 08:35:44 51°14.334 2°55.115 -999 0.056954 0.322258 -0.71383
2005-10-03 08:35:50 51°14.345 2°55.092 -999 0.056954 0.322264 -0.71383
2005-10-03 08:35:55 51°14.355 2°55.072 -999 0.056954 0.32227 -0.71383
2005-10-03 08:36:00 51°14.364 2°55.053 -999 0.056954 0.32227 -0.71383
2005-10-03 08:36:05 51°14.374 2°55.034 -999 0.056954 0.32227 -0.71383
2005-10-03 08:36:10 51°14.384 2°55.015 -999 0.056954 0.32227 -0.71383
2005-10-03 08:36:14 51°14.392 2°55 -999 0.056954 0.322276 -0.71383
2005-10-03 08:36:20 51°14.404 2°54.978 -999 0.056954 0.32227 -0.71383
2005-10-03 08:36:25 51°14.416 2°54.96 -999 0.056954 0.32227 -0.71383
2005-10-03 08:36:30 51°14.428 2°54.944 -999 0.056954 0.32227 -0.71383
2005-10-03 08:36:34 51°14.438 2°54.931 -999 0.056954 0.322276 -0.71383
2005-10-03 08:36:40 51°14.452 2°54.913 -999 0.056954 0.322276 -0.71383
2005-10-03 08:36:45 51°14.465 2°54.898 -999 0.056954 0.322282 -0.71383
2005-10-03 08:36:50 51°14.478 2°54.883 -999 0.056954 0.322282 -0.71383
2005-10-03 08:36:54 51°14.488 2°54.87 -999 0.056954 0.322288 -0.71383
2005-10-03 08:37:00 51°14.504 2°54.851 -999 0.056954 0.322294 -0.71383
2005-10-03 08:37:05 51°14.517 2°54.836 -999 0.056954 0.322294 -0.71383
2005-10-03 08:37:10 51°14.53 2°54.822 -999 0.056954 0.322294 -0.71383
2005-10-03 08:37:14 51°14.541 2°54.81 -999 0.056954 0.322294 -0.71383
2005-10-03 08:37:20 51°14.558 2°54.794 -999 0.056954 0.322294 -0.71383
2005-10-03 08:37:24 51°14.569 2°54.783 -999 0.056954 0.322294 -0.71383
2005-10-03 08:37:30 51°14.587 2°54.766 -999 0.056954 0.3223 -0.71383
2005-10-03 08:37:34 51°14.598 2°54.756 -999 0.056954 0.3223 -0.71383
2005-10-03 08:37:40 51°14.616 2°54.741 -999 0.056954 0.3223 -0.71383
2005-10-03 08:37:44 51°14.628 2°54.731 -999 0.056954 0.3223 -0.71383
2005-10-03 08:37:50 51°14.647 2°54.716 -999 0.056954 0.3223 -0.71383
2005-10-03 08:37:55 51°14.662 2°54.704 -999 0.056954 0.322306 -0.71383
2005-10-03 08:38:00 51°14.677 2°54.691 -999 0.056954 0.322312 -0.71383
2005-10-03 08:38:05 51°14.692 2°54.678 -999 0.056954 0.322318 -0.71383
2005-10-03 08:38:10 51°14.707 2°54.665 -999 0.056954 0.322318 -0.71383
2005-10-03 08:38:14 51°14.72 2°54.654 -999 0.056954 0.322324 -0.71383
2005-10-03 08:38:20 51°14.737 2°54.638 -999 0.056954 0.322336 -0.71383
2005-10-03 08:38:25 51°14.753 2°54.625 -999 0.056954 0.322336 -0.71383
2005-10-03 08:38:30 51°14.769 2°54.612 -999 0.056954 0.322336 -0.71383
2005-10-03 08:38:35 51°14.784 2°54.601 -999 0.056954 0.321883 -0.545283
2005-10-03 08:38:40 51°14.8 2°54.59 -999 0.056954 0.321883 -0.545283
2005-10-03 08:38:45 51°14.816 2°54.579 -999 0.252466 1.527665 1.173896
2005-10-03 08:38:50 51°14.832 2°54.567 -999 0.319978 1.964788 0.600836
2005-10-03 08:38:54 51°14.845 2°54.558 -999 1.304667 8.540904 2.050341
2005-10-03 08:39:00 51°14.864 2°54.545 -999 2.096962 13.968329 0.668255
2005-10-03 08:39:05 51°14.88 2°54.534 -999 2.50954 16.949439 -0.545283
2005-10-03 08:39:10 51°14.896 2°54.523 -999 2.50954 16.949439 -0.545283
2005-10-03 08:39:14 51°14.909 2°54.514 -999 2.553359 17.781734 -0.578993
2005-10-03 08:39:20 51°14.927 2°54.502 -999 3.018674 21.805706 -0.848668
2005-10-03 08:39:25 51°14.944 2°54.492 -999 3.668479 27.606202 -0.916087
2005-10-03 08:39:30 51°14.96 2°54.482 -999 3.824605 29.333838 -0.916087
2005-10-03 08:39:34 51°14.973 2°54.474 -999 3.887714 30.073365 -0.949796
2005-10-03 08:39:40 51°14.993 2°54.464 -999 3.887714 30.073365 -0.949796
2005-10-03 08:39:44 51°15.006 2°54.457 -999 3.925853 30.560429 -0.949796
2005-10-03 08:39:50 51°15.025 2°54.446 -999 3.93995 30.764158 -0.949796
2005-10-03 08:39:55 51°15.041 2°54.437 -999 3.946998 30.886088 -0.949796
2005-10-03 08:40:00 51°15.057 2°54.428 -999 3.954876 30.998591 -0.916087
2005-10-03 08:40:05 51°15.073 2°54.419 -999 3.967314 31.137247 -0.916087
2005-10-03 08:40:10 51°15.089 2°54.408 -999 3.967314 31.137247 -0.916087
2005-10-03 08:40:14 51°15.102 2°54.4 -999 3.973948 31.217713 -0.882377
2005-10-03 08:40:20 51°15.121 2°54.387 -999 3.977887 31.267627 -0.882377
2005-10-03 08:40:25 51°15.136 2°54.376 -999 3.980582 31.306053 -0.848668
2005-10-03 08:40:30 51°15.151 2°54.365 -999 3.98649 31.361704 -0.848668
2005-10-03 08:40:34 51°15.164 2°54.356 -999 3.98763 31.376871 -0.848668
2005-10-03 08:40:40 51°15.183 2°54.343 -999 3.98763 31.376871 -0.848668
2005-10-03 08:40:45 51°15.198 2°54.333 -999 3.991984 31.418927 -0.848668
2005-10-03 08:40:50 51°15.215 2°54.323 -999 3.995716 31.456843 -0.848668
2005-10-03 08:40:54 51°15.228 2°54.315 -999 3.997167 31.472169 -0.848668
2005-10-03 08:41:00 51°15.247 2°54.305 -999 3.994575 31.442951 -0.814958
2005-10-03 08:41:05 51°15.263 2°54.295 -999 3.990533 31.399082 -0.814958
2005-10-03 08:41:10 51°15.279 2°54.285 -999 3.990533 31.399082 -0.814958
2005-10-03 08:41:14 51°15.292 2°54.278 -999 3.990222 31.390535 -0.814958
2005-10-03 08:41:20 51°15.311 2°54.268 -999 3.988045 31.361764 -0.781249
2005-10-03 08:41:25 51°15.328 2°54.258 -999 3.981204 31.294097 -0.781249
2005-10-03 08:41:30 51°15.343 2°54.25 -999 3.984624 31.323409 -0.74754
2005-10-03 08:41:34 51°15.357 2°54.243 -999 3.989807 31.369452 -0.74754
2005-10-03 08:41:40 51°15.376 2°54.23 -999 3.989807 31.369452 -0.74754
2005-10-03 08:41:45 51°15.393 2°54.22 -999 3.986904 31.342092 -0.781249
2005-10-03 08:41:50 51°15.409 2°54.209 -999 3.98877 31.357144 -0.781249
2005-10-03 08:41:54 51°15.421 2°54.201 -999 3.986179 31.335737 -0.781249
2005-10-03 08:42:00 51°15.44 2°54.188 -999 3.990947 31.382672 -0.814958
2005-10-03 08:42:05 51°15.457 2°54.177 -999 3.991258 31.387982 -0.814958
2005-10-03 08:42:10 51°15.473 2°54.166 -999 3.991258 31.387982 -0.814958
2005-10-03 08:42:15 51°15.489 2°54.156 -999 3.987837 31.358656 -0.814958
2005-10-03 08:42:20 51°15.505 2°54.146 -999 3.989081 31.371492 -0.848668
2005-10-03 08:42:25 51°15.521 2°54.137 -999 3.989185 31.375632 -0.848668
2005-10-03 08:42:30 51°15.538 2°54.127 -999 3.991051 31.395863 -0.882377
2005-10-03 08:42:34 51°15.551 2°54.119 -999 3.980893 31.312648 -0.882377
2005-10-03 08:42:40 51°15.571 2°54.107 -999 3.980893 31.312648 -0.882377
2005-10-03 08:42:44 51°15.584 2°54.099 -999 3.987527 31.374669 -0.882377
2005-10-03 08:42:50 51°15.603 2°54.086 -999 3.988356 31.384526 -0.916087
2005-10-03 08:42:55 51°15.619 2°54.075 -999 3.987009 31.379826 -0.916087
2005-10-03 08:43:00 51°15.635 2°54.064 -999 3.989289 31.406946 -0.916087
2005-10-03 08:43:05 51°15.65 2°54.054 -999 3.990637 31.425247 -0.949796
2005-10-03 08:43:10 51°15.666 2°54.042 -999 3.990637 31.425247 -0.949796
2005-10-03 08:43:14 51°15.678 2°54.033 -999 3.988149 31.409251 -0.949796
2005-10-03 08:43:20 51°15.697 2°54.02 -999 3.991881 31.450434 -0.949796
2005-10-03 08:43:25 51°15.713 2°54.009 -999 3.992503 31.465634 -0.983506
2005-10-03 08:43:30 51°15.728 2°53.999 -999 3.994162 31.488651 -0.983506
2005-10-03 08:43:34 51°15.741 2°53.99 -999 3.996649 31.518969 -0.983506
2005-10-03 08:43:40 51°15.76 2°53.977 -999 3.996649 31.518969 -0.983506
2005-10-03 08:43:45 51°15.775 2°53.966 -999 3.996857 31.522745 -0.983506
2005-10-03 08:43:50 51°15.791 2°53.954 -999 3.996546 31.518058 -0.949796
2005-10-03 08:43:54 51°15.803 2°53.945 -999 3.997582 31.525865 -0.949796
2005-10-03 08:44:00 51°15.822 2°53.932 -999 3.997789 31.523129 -0.916087
2005-10-03 08:44:05 51°15.838 2°53.921 -999 3.998826 31.523774 -0.916087
2005-10-03 08:44:10 51°15.854 2°53.911 -999 3.998826 31.523774 -0.916087
2005-10-03 08:44:14 51°15.866 2°53.904 -999 3.997893 31.50322 -0.882377
2005-10-03 08:44:20 51°15.885 2°53.891 -999 3.996027 31.471899 -0.848668
2005-10-03 08:44:24 51°15.898 2°53.883 -999 3.996337 31.461001 -0.814958
2005-10-03 08:44:30 51°15.917 2°53.869 -999 3.997685 31.461149 -0.814958
2005-10-03 08:44:34 51°15.929 2°53.86 -999 3.997685 31.451428 -0.814958
2005-10-03 08:44:40 51°15.948 2°53.847 -999 3.997685 31.451428 -0.814958
2005-10-03 08:44:44 51°15.961 2°53.838 -999 3.991362 31.38889 -0.814958
2005-10-03 08:44:50 51°15.98 2°53.825 -999 3.997788 31.439385 -0.74754
2005-10-03 08:44:54 51°15.993 2°53.816 -999 3.998721 31.443029 -0.680121
2005-10-03 08:45:00 51°16.011 2°53.804 -999 4.000068 31.452247 -0.612702
2005-10-03 08:45:05 51°16.026 2°53.793 -999 4.001831 31.467688 -0.578993
2005-10-03 08:45:10 51°16.042 2°53.782 -999 4.001831 31.467688 -0.578993
2005-10-03 08:45:14 51°16.055 2°53.774 -999 4.003904 31.486503 -0.545283
2005-10-03 08:45:20 51°16.074 2°53.76 -999 3.99955 31.449648 -0.545283
2005-10-03 08:45:25 51°16.089 2°53.751 -999 4.007843 31.525568 -0.545283
2005-10-03 08:45:30 51°16.106 2°53.741 -999 4.009916 31.546341 -0.578993
2005-10-03 08:45:34 51°16.119 2°53.734 -999 4.011885 31.56621 -0.612702
2005-10-03 08:45:40 51°16.138 2°53.722 -999 4.011885 31.56621 -0.612702
2005-10-03 08:45:45 51°16.154 2°53.713 -999 4.013129 31.58102 -0.646411
2005-10-03 08:45:50 51°16.169 2°53.704 -999 4.016239 31.608297 -0.680121
2005-10-03 08:45:54 51°16.182 2°53.697 -999 4.017898 31.6248 -0.71383
2005-10-03 08:46:00 51°16.202 2°53.686 -999 4.019349 31.641443 -0.71383
2005-10-03 08:46:05 51°16.218 2°53.677 -999 4.01738 31.626768 -0.74754
2005-10-03 08:46:10 51°16.234 2°53.668 -999 4.01738 31.626768 -0.74754
2005-10-03 08:46:14 51°16.247 2°53.661 -999 4.015928 31.615337 -0.781249
2005-10-03 08:46:20 51°16.266 2°53.652 -999 4.01852 31.638729 -0.781249
2005-10-03 08:46:25 51°16.282 2°53.644 -999 4.015514 31.611698 -0.814958
2005-10-03 08:46:30 51°16.299 2°53.636 -999 4.012922 31.58831 -0.848668
2005-10-03 08:46:34 51°16.312 2°53.629 -999 4.006599 31.533492 -0.848668
2005-10-03 08:46:40 51°16.331 2°53.618 -999 4.006599 31.533492 -0.848668
2005-10-03 08:46:44 51°16.343 2°53.611 -999 4.010642 31.568304 -0.882377
2005-10-03 08:46:50 51°16.362 2°53.601 -999 4.005666 31.52466 -0.882377
2005-10-03 08:46:54 51°16.375 2°53.594 -999 4.011471 31.57753 -0.916087
2005-10-03 08:47:00 51°16.395 2°53.583 -999 4.011989 31.584681 -0.916087
2005-10-03 08:47:05 51°16.41 2°53.575 -999 4.01738 31.636545 -0.916087
2005-10-03 08:47:10 51°16.426 2°53.567 -999 4.01738 31.636545 -0.916087
2005-10-03 08:47:15 51°16.443 2°53.559 -999 4.021837 31.679591 -0.882377
2005-10-03 08:47:20 51°16.459 2°53.55 -999 4.029715 31.753356 -0.882377
2005-10-03 08:47:25 51°16.475 2°53.541 -999 4.03521 31.804902 -0.848668
2005-10-03 08:47:30 51°16.49 2°53.533 -999 4.044436 31.886645 -0.848668
2005-10-03 08:47:34 51°16.503 2°53.527 -999 4.050863 31.943811 -0.848668
2005-10-03 08:47:40 51°16.523 2°53.517 -999 4.050863 31.943811 -0.848668
2005-10-03 08:47:45 51°16.539 2°53.509 -999 4.054077 31.97207 -0.814958
2005-10-03 08:47:50 51°16.555 2°53.501 -999 4.057083 31.99785 -0.814958
2005-10-03 08:47:54 51°16.568 2°53.495 -999 4.058638 32.010867 -0.781249
2005-10-03 08:48:00 51°16.587 2°53.485 -999 4.062059 32.039637 -0.781249
2005-10-03 08:48:05 51°16.604 2°53.477 -999 4.058223 32.00458 -0.781249
2005-10-03 08:48:10 51°16.62 2°53.469 -999 4.058223 32.00458 -0.781249
2005-10-03 08:48:14 51°16.633 2°53.462 -999 4.065377 32.064852 -0.74754
2005-10-03 08:48:20 51°16.652 2°53.452 -999 4.064651 32.057147 -0.74754
2005-10-03 08:48:25 51°16.669 2°53.444 -999 4.061852 32.030547 -0.74754
2005-10-03 08:48:30 51°16.685 2°53.435 -999 4.063925 32.04746 -0.74754
2005-10-03 08:48:35 51°16.701 2°53.427 -999 4.064858 32.055005 -0.71383
2005-10-03 08:48:40 51°16.717 2°53.419 -999 4.064858 32.055005 -0.71383
2005-10-03 08:48:45 51°16.733 2°53.411 -999 4.063925 32.045478 -0.71383
2005-10-03 08:48:50 51°16.75 2°53.403 -999 4.06351 32.04051 -0.71383
2005-10-03 08:48:54 51°16.763 2°53.396 -999 4.062163 32.026019 -0.680121
2005-10-03 08:49:00 51°16.782 2°53.387 -999 4.061333 32.018067 -0.680121
2005-10-03 08:49:05 51°16.799 2°53.379 -999 4.060711 32.012599 -0.680121
2005-10-03 08:49:10 51°16.815 2°53.37 -999 4.060711 32.012599 -0.680121
2005-10-03 08:49:14 51°16.828 2°53.364 -999 4.00038 31.483488 -0.646411
2005-10-03 08:49:20 51°16.848 2°53.354 -999 4.059986 32.006879 -0.646411
2005-10-03 08:49:25 51°16.864 2°53.345 -999 4.061333 32.019387 -0.646411
2005-10-03 08:49:30 51°16.881 2°53.338 -999 4.0604 32.010525 -0.612702
2005-10-03 08:49:34 51°16.893 2°53.332 -999 4.056668 31.977716 -0.578993
2005-10-03 08:49:40 51°16.912 2°53.322 -999 4.056668 31.977716 -0.578993
2005-10-03 08:49:45 51°16.928 2°53.314 -999 4.058845 31.996854 -0.578993
2005-10-03 08:49:50 51°16.943 2°53.307 -999 4.055528 31.967693 -0.545283
2005-10-03 08:49:55 51°16.959 2°53.299 -999 4.059675 32.004145 -0.545283
2005-10-03 08:50:00 51°16.974 2°53.291 -999 4.058638 31.995691 -0.545283
2005-10-03 08:50:05 51°16.989 2°53.283 -999 4.059364 32.00273 -0.511574
2005-10-03 08:50:10 51°17.005 2°53.277 -999 4.059364 32.00273 -0.511574
2005-10-03 08:50:14 51°17.017 2°53.271 -999 4.050863 31.928666 -0.511574
2005-10-03 08:50:20 51°17.036 2°53.264 -999 4.051381 31.932563 -0.511574
2005-10-03 08:50:25 51°17.053 2°53.259 -999 4.048789 31.909129 -0.545283
2005-10-03 08:50:30 51°17.069 2°53.254 -999 4.048686 31.907561 -0.578993
2005-10-03 08:50:34 51°17.082 2°53.25 -999 4.049826 31.917581 -0.578993
2005-10-03 08:50:40 51°17.102 2°53.245 -999 4.049826 31.917581 -0.578993
2005-10-03 08:50:45 51°17.118 2°53.241 -999 4.050137 31.918341 -0.578993
2005-10-03 08:50:50 51°17.134 2°53.235 -999 4.048167 31.899061 -0.612702
2005-10-03 08:50:54 51°17.147 2°53.231 -999 4.047027 31.888385 -0.646411
2005-10-03 08:51:00 51°17.167 2°53.224 -999 4.043813 31.859497 -0.646411
2005-10-03 08:51:05 51°17.183 2°53.217 -999 4.041325 31.836987 -0.680121
2005-10-03 08:51:10 51°17.2 2°53.211 -999 4.041325 31.836987 -0.680121
2005-10-03 08:51:14 51°17.213 2°53.206 -999 4.038941 31.815391 -0.680121
2005-10-03 08:51:20 51°17.232 2°53.198 -999 4.040289 31.826571 -0.71383
2005-10-03 08:51:24 51°17.245 2°53.192 -999 4.038734 31.81226 -0.71383
2005-10-03 08:51:30 51°17.265 2°53.185 -999 4.036661 31.794053 -0.74754
2005-10-03 08:51:34 51°17.278 2°53.181 -999 4.036246 31.789757 -0.74754
2005-10-03 08:51:40 51°17.298 2°53.177 -999 4.036246 31.789757 -0.74754
2005-10-03 08:51:45 51°17.314 2°53.177 -999 4.036142 31.788192 -0.74754
2005-10-03 08:51:50 51°17.331 2°53.18 -999 4.032929 31.758669 -0.74754
2005-10-03 08:51:54 51°17.343 2°53.184 -999 4.035106 31.776472 -0.74754
2005-10-03 08:52:00 51°17.361 2°53.194 -999 4.031685 31.745787 -0.74754
2005-10-03 08:52:05 51°17.375 2°53.205 -999 4.033965 31.763844 -0.71383
2005-10-03 08:52:10 51°17.39 2°53.218 -999 4.033965 31.763844 -0.71383
2005-10-03 08:52:14 51°17.401 2°53.228 -999 4.034069 31.762791 -0.71383
2005-10-03 08:52:20 51°17.417 2°53.244 -999 4.035624 31.775131 -0.71383
2005-10-03 08:52:25 51°17.43 2°53.256 -999 4.036038 31.776808 -0.680121
2005-10-03 08:52:30 51°17.444 2°53.268 -999 4.037179 31.784199 -0.71383
2005-10-03 08:52:34 51°17.455 2°53.278 -999 4.037179 31.784853 -0.71383
2005-10-03 08:52:40 51°17.473 2°53.292 -999 4.037179 31.784853 -0.71383
2005-10-03 08:52:45 51°17.487 2°53.305 -999 4.037697 31.790712 -0.71383
2005-10-03 08:52:50 51°17.501 2°53.318 -999 4.037904 31.792532 -0.71383
2005-10-03 08:52:54 51°17.512 2°53.329 -999 4.037801 31.792277 -0.71383
2005-10-03 08:53:00 51°17.528 2°53.346 -999 4.037075 31.786561 -0.71383
2005-10-03 08:53:05 51°17.541 2°53.36 -999 4.037593 31.791111 -0.71383
2005-10-03 08:53:10 51°17.555 2°53.375 -999 4.037593 31.791111 -0.71383
2005-10-03 08:53:14 51°17.566 2°53.387 -999 4.037904 31.793841 -0.71383
2005-10-03 08:53:20 51°17.581 2°53.404 -999 4.037904 31.793841 -0.71383
2005-10-03 08:53:24 51°17.592 2°53.415 -999 4.037904 31.793841 -0.71383
2005-10-03 08:53:30 51°17.607 2°53.432 -999 4.038423 31.798391 -0.71383
2005-10-03 08:53:34 51°17.618 2°53.444 -999 4.037075 31.785907 -0.71383
2005-10-03 08:53:40 51°17.634 2°53.461 -999 4.037075 31.785907 -0.71383
2005-10-03 08:53:44 51°17.645 2°53.472 -999 4.03863 31.798247 -0.71383
2005-10-03 08:53:50 51°17.661 2°53.49 -999 4.038941 31.800977 -0.71383
2005-10-03 08:53:54 51°17.672 2°53.501 -999 4.038319 31.795517 -0.71383
2005-10-03 08:54:00 51°17.687 2°53.518 -999 4.039459 31.804872 -0.71383
2005-10-03 08:54:04 51°17.698 2°53.529 -999 4.039978 31.808766 -0.71383
2005-10-03 08:54:10 51°17.714 2°53.546 -999 4.039978 31.808766 -0.71383
2005-10-03 08:54:15 51°17.728 2°53.56 -999 4.039978 31.807456 -0.71383
2005-10-03 08:54:20 51°17.741 2°53.575 -999 4.039459 31.801597 -0.71383
2005-10-03 08:54:25 51°17.754 2°53.589 -999 4.040288 31.806912 -0.680121
2005-10-03 08:54:30 51°17.768 2°53.603 -999 4.040599 31.808331 -0.680121
2005-10-03 08:54:34 51°17.778 2°53.614 -999 4.041221 31.81248 -0.680121
2005-10-03 08:54:40 51°17.794 2°53.631 -999 4.041221 31.81248 -0.680121
2005-10-03 08:54:45 51°17.807 2°53.645 -999 4.04174 31.815065 -0.646411
2005-10-03 08:54:50 51°17.82 2°53.658 -999 4.040599 31.802439 -0.646411
2005-10-03 08:54:54 51°17.831 2°53.668 -999 4.041532 31.808007 -0.612702
2005-10-03 08:55:00 51°17.848 2°53.682 -999 4.040392 31.795384 -0.612702
2005-10-03 08:55:05 51°17.862 2°53.696 -999 4.041429 31.801861 -0.612702
2005-10-03 08:55:10 51°17.875 2°53.708 -999 4.041429 31.801861 -0.612702
2005-10-03 08:55:14 51°17.886 2°53.718 -999 4.041014 31.79626 -0.578993
2005-10-03 08:55:20 51°17.904 2°53.733 -999 4.034379 31.735456 -0.578993
2005-10-03 08:55:25 51°17.917 2°53.745 -999 4.041117 31.791937 -0.545283
2005-10-03 08:55:30 51°17.931 2°53.757 -999 4.039977 31.778013 -0.545283
2005-10-03 08:55:35 51°17.944 2°53.77 -999 4.039562 31.771763 -0.511574
2005-10-03 08:55:40 51°17.958 2°53.782 -999 4.039562 31.771763 -0.511574
2005-10-03 08:55:45 51°17.972 2°53.795 -999 4.039251 31.765769 -0.511574
2005-10-03 08:55:50 51°17.986 2°53.807 -999 4.038733 31.75796 -0.477864
2005-10-03 08:55:55 51°17.999 2°53.82 -999 4.039148 31.758983 -0.477864
2005-10-03 08:56:00 51°18.013 2°53.832 -999 4.038422 31.749358 -0.444155
2005-10-03 08:56:05 51°18.027 2°53.845 -999 4.033239 31.701979 -0.444155
2005-10-03 08:56:10 51°18.041 2°53.856 -999 4.033239 31.701979 -0.444155
2005-10-03 08:56:15 51°18.054 2°53.869 -999 4.036452 31.726878 -0.444155
2005-10-03 08:56:20 51°18.068 2°53.882 -999 4.036245 31.722454 -0.444155
2005-10-03 08:56:24 51°18.079 2°53.891 -999 4.035415 31.712581 -0.444155
2005-10-03 08:56:30 51°18.096 2°53.907 -999 4.035312 31.709066 -0.444155
2005-10-03 08:56:34 51°18.107 2°53.916 -999 4.035001 31.703736 -0.410446
2005-10-03 08:56:40 51°18.123 2°53.931 -999 4.035001 31.703736 -0.410446
2005-10-03 08:56:45 51°18.137 2°53.943 -999 4.031372 31.669357 -0.410446
2005-10-03 08:56:50 51°18.151 2°53.955 -999 4.031269 31.666497 -0.410446
2005-10-03 08:56:54 51°18.162 2°53.965 -999 4.03272 31.675952 -0.444155
2005-10-03 08:57:00 51°18.178 2°53.98 -999 4.03158 31.664017 -0.410446
2005-10-03 08:57:05 51°18.192 2°53.992 -999 4.031165 31.658437 -0.444155
2005-10-03 08:57:10 51°18.206 2°54.004 -999 4.031165 31.658437 -0.444155
2005-10-03 08:57:14 51°18.217 2°54.014 -999 4.03075 31.653507 -0.410446
2005-10-03 08:57:20 51°18.234 2°54.029 -999 4.029506 31.640668 -0.410446
2005-10-03 08:57:25 51°18.247 2°54.041 -999 4.028988 31.634183 -0.410446
2005-10-03 08:57:30 51°18.26 2°54.053 -999 4.028573 31.628606 -0.410446
2005-10-03 08:57:34 51°18.271 2°54.063 -999 4.027848 31.620308 -0.410446
2005-10-03 08:57:40 51°18.288 2°54.079 -999 4.027848 31.620308 -0.410446
2005-10-03 08:57:45 51°18.3 2°54.091 -999 4.026915 31.610847 -0.410446
2005-10-03 08:57:50 51°18.314 2°54.103 -999 4.026707 31.605789 -0.410446
2005-10-03 08:57:55 51°18.328 2°54.116 -999 4.026604 31.602936 -0.410446
2005-10-03 08:58:00 51°18.342 2°54.128 -999 4.022768 31.567441 -0.410446
2005-10-03 08:58:05 51°18.355 2°54.139 -999 4.023494 31.571196 -0.410446
2005-10-03 08:58:10 51°18.369 2°54.151 -999 4.023494 31.571196 -0.410446
2005-10-03 08:58:15 51°18.383 2°54.163 -999 4.02453 31.578967 -0.410446
2005-10-03 08:58:20 51°18.396 2°54.174 -999 4.025256 31.584017 -0.410446
2005-10-03 08:58:24 51°18.407 2°54.185 -999 4.023597 31.568216 -0.410446
2005-10-03 08:58:30 51°18.424 2°54.199 -999 4.02339 31.564461 -0.410446
2005-10-03 08:58:34 51°18.435 2°54.209 -999 4.022664 31.556821 -0.444155
2005-10-03 08:58:40 51°18.451 2°54.224 -999 4.022664 31.556821 -0.444155
2005-10-03 08:58:45 51°18.464 2°54.238 -999 4.021939 31.549182 -0.444155
2005-10-03 08:58:50 51°18.477 2°54.251 -999 4.020487 31.5352 -0.477864
2005-10-03 08:58:55 51°18.49 2°54.265 -999 4.021006 31.538437 -0.444155
2005-10-03 08:59:00 51°18.504 2°54.279 -999 4.019243 31.521093 -0.444155
2005-10-03 08:59:04 51°18.514 2°54.29 -999 4.02028 31.528214 -0.444155
2005-10-03 08:59:10 51°18.529 2°54.305 -999 4.02028 31.528214 -0.444155
2005-10-03 08:59:14 51°18.54 2°54.316 -999 4.02028 31.526921 -0.444155
2005-10-03 08:59:20 51°18.555 2°54.332 -999 4.020384 31.525888 -0.444155
2005-10-03 08:59:25 51°18.569 2°54.346 -999 4.019347 31.51489 -0.477864
2005-10-03 08:59:30 51°18.582 2°54.359 -999 4.017896 31.50027 -0.477864
2005-10-03 08:59:35 51°18.595 2°54.372 -999 4.015408 31.477243 -0.477864
2005-10-03 08:59:40 51°18.608 2°54.384 -999 4.015408 31.477243 -0.477864
2005-10-03 08:59:45 51°18.621 2°54.397 -999 4.018414 31.50157 -0.477864
2005-10-03 08:59:50 51°18.635 2°54.411 -999 4.017481 31.492128 -0.477864
2005-10-03 08:59:54 51°18.645 2°54.422 -999 4.018828 31.503256 -0.477864
2005-10-03 09:00:00 51°18.661 2°54.437 -999 4.017792 31.494199 -0.477864
2005-10-03 09:00:05 51°18.675 2°54.45 -999 4.017066 31.486569 -0.477864
2005-10-03 09:00:10 51°18.688 2°54.463 -999 4.017066 31.486569 -0.477864
2005-10-03 09:00:14 51°18.699 2°54.474 -999 4.017792 31.492908 -0.511574
2005-10-03 09:00:20 51°18.714 2°54.489 -999 4.016133 31.477774 -0.477864
2005-10-03 09:00:25 51°18.728 2°54.503 -999 4.016133 31.477774 -0.477864
2005-10-03 09:00:30 51°18.741 2°54.516 -999 4.015304 31.470531 -0.477864
2005-10-03 09:00:34 51°18.752 2°54.526 -999 4.015926 31.475964 -0.477864
2005-10-03 09:00:40 51°18.768 2°54.541 -999 4.015926 31.475964 -0.477864
2005-10-03 09:00:45 51°18.781 2°54.554 -999 4.015304 31.469886 -0.511574
2005-10-03 09:00:50 51°18.794 2°54.568 -999 4.014164 31.459281 -0.511574
2005-10-03 09:00:55 51°18.807 2°54.581 -999 4.0152 31.466401 -0.511574
2005-10-03 09:01:00 51°18.82 2°54.594 -999 4.013749 31.453081 -0.511574
2005-10-03 09:01:05 51°18.834 2°54.608 -999 4.013853 31.453987 -0.545283
2005-10-03 09:01:10 51°18.847 2°54.622 -999 4.013853 31.453987 -0.545283
2005-10-03 09:01:15 51°18.86 2°54.636 -999 4.012609 31.443768 -0.545283
2005-10-03 09:01:20 51°18.873 2°54.649 -999 4.011572 31.43536 -0.578993
2005-10-03 09:01:25 51°18.886 2°54.664 -999 4.009706 31.419066 -0.612702
2005-10-03 09:01:30 51°18.899 2°54.677 -999 4.011883 31.436787 -0.612702
2005-10-03 09:01:34 51°18.909 2°54.688 -999 4.011158 31.428518 -0.612702
2005-10-03 09:01:40 51°18.925 2°54.707 -999 4.011158 31.428518 -0.612702
2005-10-03 09:01:45 51°18.937 2°54.719 -999 4.010743 31.421679 -0.612702
2005-10-03 09:01:50 51°18.95 2°54.734 -999 4.011365 31.42389 -0.612702
2005-10-03 09:01:54 51°18.96 2°54.744 -999 4.01095 31.418339 -0.612702
2005-10-03 09:02:00 51°18.976 2°54.761 -999 4.013853 31.441745 -0.612702
2005-10-03 09:02:05 51°18.989 2°54.774 -999 4.013127 31.432835 -0.646411
2005-10-03 09:02:10 51°19.002 2°54.788 -999 4.013127 31.432835 -0.646411
2005-10-03 09:02:14 51°19.012 2°54.8 -999 4.013542 31.435167 -0.646411
2005-10-03 09:02:20 51°19.028 2°54.816 -999 4.013749 31.435689 -0.646411
2005-10-03 09:02:25 51°19.04 2°54.831 -999 4.013541 31.432592 -0.646411
2005-10-03 09:02:30 51°19.054 2°54.844 -999 4.01209 31.41864 -0.646411
2005-10-03 09:02:34 51°19.065 2°54.854 -999 4.012194 31.418258 -0.646411
2005-10-03 09:02:40 51°19.081 2°54.87 -999 4.012194 31.418258 -0.646411
2005-10-03 09:02:45 51°19.093 2°54.883 -999 4.012298 31.418519 -0.646411
2005-10-03 09:02:50 51°19.107 2°54.897 -999 4.012712 31.422137 -0.680121
2005-10-03 09:02:54 51°19.117 2°54.908 -999 4.010017 31.399262 -0.680121
2005-10-03 09:03:00 51°19.132 2°54.926 -999 4.011365 31.410378 -0.680121
2005-10-03 09:03:05 51°19.146 2°54.939 -999 4.011987 31.415805 -0.680121
2005-10-03 09:03:10 51°19.159 2°54.953 -999 4.011987 31.415805 -0.680121
2005-10-03 09:03:15 51°19.172 2°54.967 -999 4.01209 31.416066 -0.680121
2005-10-03 09:03:20 51°19.185 2°54.981 -999 4.012919 31.42266 -0.680121
2005-10-03 09:03:24 51°19.195 2°54.992 -999 4.012919 31.423946 -0.646411
2005-10-03 09:03:30 51°19.211 2°55.007 -999 4.013334 31.428208 -0.680121
2005-10-03 09:03:34 51°19.221 2°55.019 -999 4.011572 31.413473 -0.646411
2005-10-03 09:03:40 51°19.238 2°55.034 -999 4.011572 31.413473 -0.646411
2005-10-03 09:03:45 51°19.251 2°55.047 -999 4.010846 31.406498 -0.646411
2005-10-03 09:03:50 51°19.264 2°55.059 -999 4.01209 31.417353 -0.680121
2005-10-03 09:03:54 51°19.275 2°55.07 -999 4.012298 31.420449 -0.646411
2005-10-03 09:04:00 51°19.292 2°55.085 -999 4.011883 31.418117 -0.646411
2005-10-03 09:04:05 51°19.305 2°55.099 -999 4.011157 31.411785 -0.646411
2005-10-03 09:04:10 51°19.317 2°55.112 -999 4.011157 31.411785 -0.646411
2005-10-03 09:04:14 51°19.328 2°55.124 -999 4.011572 31.416046 -0.646411
2005-10-03 09:04:20 51°19.343 2°55.142 -999 4.010743 31.409452 -0.646411
2005-10-03 09:04:25 51°19.356 2°55.158 -999 4.011365 31.414237 -0.646411
2005-10-03 09:04:30 51°19.367 2°55.176 -999 4.010535 31.406357 -0.646411
2005-10-03 09:04:34 51°19.374 2°55.191 -999 4.008359 31.387361 -0.646411
2005-10-03 09:04:40 51°19.386 2°55.215 -999 4.008359 31.387361 -0.646411
2005-10-03 09:04:45 51°19.394 2°55.236 -999 4.010846 31.408427 -0.646411
2005-10-03 09:04:50 51°19.402 2°55.258 -999 4.012401 31.421354 -0.612702
2005-10-03 09:04:54 51°19.409 2°55.274 -999 4.010017 31.399262 -0.646411
2005-10-03 09:05:00 51°19.418 2°55.301 -999 4.008566 31.384671 -0.646411
2005-10-03 09:05:05 51°19.426 2°55.322 -999 4.012712 31.419564 -0.612702
2005-10-03 09:05:10 51°19.434 2°55.344 -999 4.012712 31.419564 -0.612702
2005-10-03 09:05:15 51°19.443 2°55.365 -999 4.011883 31.412328 -0.612702
2005-10-03 09:05:20 51°19.45 2°55.386 -999 4.013334 31.425635 -0.612702
2005-10-03 09:05:25 51°19.46 2°55.408 -999 4.013645 31.428992 -0.612702
2005-10-03 09:05:30 51°19.468 2°55.429 -999 4.015096 31.4423 -0.612702
2005-10-03 09:05:35 51°19.477 2°55.449 -999 4.014682 31.438682 -0.612702
2005-10-03 09:05:40 51°19.485 2°55.47 -999 4.014682 31.438682 -0.612702
2005-10-03 09:05:45 51°19.494 2°55.491 -999 4.014785 31.44023 -0.612702
2005-10-03 09:05:50 51°19.503 2°55.512 -999 4.012816 31.423042 -0.612702
2005-10-03 09:05:54 51°19.51 2°55.529 -999 4.014993 31.442683 -0.612702
2005-10-03 09:06:00 51°19.521 2°55.553 -999 4.012298 31.419806 -0.612702
2005-10-03 09:06:05 51°19.529 2°55.575 -999 4.014682 31.440613 -0.612702
2005-10-03 09:06:10 51°19.538 2°55.596 -999 4.014682 31.440613 -0.612702
2005-10-03 09:06:14 51°19.545 2°55.613 -999 4.013749 31.432471 -0.612702
2005-10-03 09:06:20 51°19.554 2°55.638 -999 4.013334 31.428208 -0.612702
2005-10-03 09:06:25 51°19.563 2°55.66 -999 4.013127 31.426399 -0.612702
2005-10-03 09:06:30 51°19.572 2°55.681 -999 4.015304 31.445397 -0.612702
2005-10-03 09:06:34 51°19.578 2°55.698 -999 4.012919 31.423946 -0.612702
2005-10-03 09:06:40 51°19.589 2°55.723 -999 4.012919 31.423946 -0.612702
2005-10-03 09:06:45 51°19.597 2°55.744 -999 4.0152 31.443849 -0.612702
2005-10-03 09:06:50 51°19.605 2°55.766 -999 4.014578 31.439065 -0.612702
2005-10-03 09:06:55 51°19.614 2°55.788 -999 4.013334 31.428208 -0.612702
2005-10-03 09:07:00 51°19.623 2°55.808 -999 4.014889 31.441779 -0.612702
2005-10-03 09:07:05 51°19.632 2°55.828 -999 4.015822 31.449277 -0.612702
2005-10-03 09:07:10 51°19.642 2°55.848 -999 4.015822 31.449277 -0.612702
2005-10-03 09:07:15 51°19.651 2°55.868 -999 4.015718 31.447729 -0.612702
2005-10-03 09:07:20 51°19.661 2°55.889 -999 4.016237 31.452896 -0.612702
2005-10-03 09:07:25 51°19.669 2°55.909 -999 4.020383 31.488444 -0.612702
2005-10-03 09:07:30 51°19.678 2°55.93 -999 4.020901 31.493613 -0.612702
2005-10-03 09:07:34 51°19.685 2°55.947 -999 4.021316 31.497233 -0.612702
2005-10-03 09:07:40 51°19.695 2°55.972 -999 4.021316 31.497233 -0.612702
2005-10-03 09:07:45 51°19.705 2°55.992 -999 4.020279 31.487539 -0.612702
2005-10-03 09:07:50 51°19.714 2°56.013 -999 4.021523 31.498398 -0.612702
2005-10-03 09:07:55 51°19.723 2°56.034 -999 4.021005 31.494518 -0.646411
2005-10-03 09:08:00 51°19.732 2°56.054 -999 4.022041 31.503568 -0.646411
2005-10-03 09:08:05 51°19.741 2°56.075 -999 4.022767 31.510548 -0.612702
2005-10-03 09:08:10 51°19.75 2°56.095 -999 4.022767 31.510548 -0.612702
2005-10-03 09:08:14 51°19.757 2°56.112 -999 4.023804 31.519598 -0.612702
2005-10-03 09:08:20 51°19.769 2°56.136 -999 4.025151 31.531364 -0.612702
2005-10-03 09:08:25 51°19.778 2°56.157 -999 4.025566 31.533693 -0.646411
2005-10-03 09:08:30 51°19.787 2°56.178 -999 4.026499 31.541193 -0.612702
2005-10-03 09:08:35 51°19.797 2°56.198 -999 4.026603 31.542098 -0.646411
2005-10-03 09:08:40 51°19.806 2°56.217 -999 4.026603 31.542098 -0.646411
2005-10-03 09:08:45 51°19.815 2°56.238 -999 4.027225 31.548821 -0.646411
2005-10-03 09:08:50 51°19.825 2°56.259 -999 4.027225 31.549467 -0.646411
2005-10-03 09:08:54 51°19.833 2°56.275 -999 4.027639 31.553734 -0.646411
2005-10-03 09:09:00 51°19.843 2°56.299 -999 4.027639 31.553734 -0.646411
2005-10-03 09:09:05 51°19.851 2°56.321 -999 4.027847 31.55619 -0.646411
2005-10-03 09:09:10 51°19.861 2°56.341 -999 4.027847 31.55619 -0.646411
2005-10-03 09:09:14 51°19.869 2°56.357 -999 4.028261 31.560458 -0.646411
2005-10-03 09:09:20 51°19.88 2°56.382 -999 4.02795 31.557742 -0.646411
2005-10-03 09:09:25 51°19.889 2°56.401 -999 4.028469 31.560975 -0.646411
2005-10-03 09:09:30 51°19.899 2°56.421 -999 4.028883 31.564596 -0.646411
2005-10-03 09:09:35 51°19.908 2°56.441 -999 4.029298 31.568217 -0.646411
2005-10-03 09:09:40 51°19.917 2°56.463 -999 4.029298 31.568217 -0.646411
2005-10-03 09:09:45 51°19.925 2°56.484 -999 4.029505 31.571321 -0.646411
2005-10-03 09:09:50 51°19.933 2°56.506 -999 4.030542 31.581668 -0.646411
2005-10-03 09:09:55 51°19.941 2°56.528 -999 4.030749 31.583479 -0.646411
2005-10-03 09:10:00 51°19.949 2°56.549 -999 4.031475 31.590464 -0.646411
2005-10-03 09:10:05 51°19.958 2°56.57 -999 4.031786 31.59318 -0.646411
2005-10-03 09:10:10 51°19.967 2°56.591 -999 4.031786 31.59318 -0.646411
2005-10-03 09:10:15 51°19.976 2°56.611 -999 4.031993 31.594991 -0.646411
2005-10-03 09:10:20 51°19.985 2°56.632 -999 4.032304 31.598355 -0.646411
2005-10-03 09:10:25 51°19.994 2°56.653 -999 4.032615 31.601071 -0.612702
2005-10-03 09:10:30 51°20.003 2°56.674 -999 4.032926 31.604435 -0.612702
2005-10-03 09:10:34 51°20.01 2°56.69 -999 4.033444 31.608963 -0.612702
2005-10-03 09:10:40 51°20.02 2°56.716 -999 4.033444 31.608963 -0.612702
2005-10-03 09:10:45 51°20.029 2°56.738 -999 4.033859 31.611938 -0.612702
2005-10-03 09:10:50 51°20.037 2°56.758 -999 4.034481 31.616724 -0.612702
2005-10-03 09:10:54 51°20.044 2°56.775 -999 4.034896 31.620346 -0.612702
2005-10-03 09:11:00 51°20.055 2°56.799 -999 4.03531 31.623321 -0.612702
2005-10-03 09:11:05 51°20.065 2°56.82 -999 4.035932 31.628106 -0.578993
2005-10-03 09:11:10 51°20.074 2°56.84 -999 4.035932 31.628106 -0.578993
2005-10-03 09:11:14 51°20.081 2°56.857 -999 4.036554 31.632244 -0.578993
2005-10-03 09:11:20 51°20.091 2°56.883 -999 4.037176 31.63703 -0.578993
2005-10-03 09:11:25 51°20.1 2°56.904 -999 4.037902 31.642721 -0.578993
2005-10-03 09:11:30 51°20.108 2°56.926 -999 4.03842 31.646601 -0.545283
2005-10-03 09:11:34 51°20.115 2°56.943 -999 4.038835 31.649575 -0.545283
2005-10-03 09:11:40 51°20.126 2°56.967 -999 4.038835 31.649575 -0.545283
2005-10-03 09:11:45 51°20.136 2°56.986 -999 4.039042 31.650738 -0.545283
2005-10-03 09:11:50 51°20.145 2°57.007 -999 4.039249 31.651901 -0.545283
2005-10-03 09:11:55 51°20.154 2°57.027 -999 4.039353 31.652807 -0.545283
2005-10-03 09:12:00 51°20.163 2°57.048 -999 4.039457 31.654361 -0.545283
2005-10-03 09:12:05 51°20.172 2°57.069 -999 4.03956 31.654618 -0.545283
2005-10-03 09:12:10 51°20.181 2°57.09 -999 4.03956 31.654618 -0.545283
2005-10-03 09:12:15 51°20.19 2°57.111 -999 4.039768 31.655781 -0.545283
2005-10-03 09:12:20 51°20.2 2°57.13 -999 4.039768 31.655133 -0.545283
2005-10-03 09:12:24 51°20.207 2°57.146 -999 4.03956 31.653322 -0.578993
2005-10-03 09:12:30 51°20.219 2°57.171 -999 4.039353 31.652159 -0.578993
2005-10-03 09:12:35 51°20.227 2°57.192 -999 4.038938 31.650481 -0.578993
2005-10-03 09:12:40 51°20.238 2°57.212 -999 4.038938 31.650481 -0.578993
2005-10-03 09:12:45 51°20.247 2°57.231 -999 4.038731 31.649966 -0.578993
2005-10-03 09:12:50 51°20.257 2°57.252 -999 4.038627 31.64906 -0.578993
2005-10-03 09:12:54 51°20.265 2°57.267 -999 4.038731 31.649318 -0.578993
2005-10-03 09:13:00 51°20.276 2°57.291 -999 4.038835 31.649575 -0.578993
2005-10-03 09:13:05 51°20.285 2°57.312 -999 4.039042 31.650738 -0.578993
2005-10-03 09:13:10 51°20.294 2°57.332 -999 4.039042 31.650738 -0.578993
2005-10-03 09:13:14 51°20.3 2°57.349 -999 4.039249 31.650605 -0.578993
2005-10-03 09:13:20 51°20.311 2°57.375 -999 4.03956 31.651377 -0.578993
2005-10-03 09:13:25 51°20.32 2°57.396 -999 4.039975 31.653703 -0.578993
2005-10-03 09:13:30 51°20.329 2°57.417 -999 4.040286 31.654475 -0.545283
2005-10-03 09:13:34 51°20.336 2°57.433 -999 4.04039 31.652789 -0.578993
2005-10-03 09:13:40 51°20.346 2°57.459 -999 4.04039 31.652789 -0.578993
2005-10-03 09:13:45 51°20.355 2°57.48 -999 4.040701 31.654857 -0.545283
2005-10-03 09:13:50 51°20.365 2°57.501 -999 4.041115 31.65783 -0.545283
2005-10-03 09:13:55 51°20.373 2°57.522 -999 4.041426 31.659898 -0.511574
2005-10-03 09:14:00 51°20.382 2°57.543 -999 4.042255 31.665197 -0.477864
2005-10-03 09:14:05 51°20.392 2°57.564 -999 4.041737 31.659374 -0.477864
2005-10-03 09:14:10 51°20.4 2°57.585 -999 4.041737 31.659374 -0.477864
2005-10-03 09:14:14 51°20.408 2°57.602 -999 4.037798 31.623037 -0.477864
2005-10-03 09:14:20 51°20.418 2°57.628 -999 4.044432 31.680319 -0.477864
2005-10-03 09:14:25 51°20.426 2°57.65 -999 4.044225 31.67786 -0.477864
2005-10-03 09:14:30 51°20.434 2°57.671 -999 4.043707 31.675278 -0.477864
2005-10-03 09:14:35 51°20.442 2°57.693 -999 4.043188 31.672048 -0.477864
2005-10-03 09:14:40 51°20.451 2°57.714 -999 4.043188 31.672048 -0.477864
2005-10-03 09:14:45 51°20.46 2°57.735 -999 4.042877 31.66998 -0.477864
2005-10-03 09:14:50 51°20.469 2°57.756 -999 4.042566 31.667913 -0.477864
2005-10-03 09:14:55 51°20.478 2°57.778 -999 4.042359 31.66675 -0.477864
2005-10-03 09:15:00 51°20.488 2°57.798 -999 4.042048 31.664034 -0.477864
2005-10-03 09:15:05 51°20.496 2°57.82 -999 4.041841 31.662224 -0.444155
2005-10-03 09:15:10 51°20.505 2°57.841 -999 4.041841 31.662224 -0.444155
2005-10-03 09:15:15 51°20.512 2°57.864 -999 4.041737 31.661318 -0.444155
2005-10-03 09:15:20 51°20.521 2°57.885 -999 4.041737 31.661318 -0.444155
2005-10-03 09:15:25 51°20.529 2°57.908 -999 4.041633 31.659765 -0.444155
2005-10-03 09:15:30 51°20.538 2°57.929 -999 4.041426 31.657954 -0.444155
2005-10-03 09:15:34 51°20.545 2°57.945 -999 4.041219 31.656792 -0.444155
2005-10-03 09:15:40 51°20.556 2°57.971 -999 4.041219 31.656792 -0.444155
2005-10-03 09:15:45 51°20.565 2°57.993 -999 4.041115 31.657182 -0.444155
2005-10-03 09:15:50 51°20.574 2°58.014 -999 4.040908 31.65602 -0.410446
2005-10-03 09:15:54 51°20.58 2°58.032 -999 4.040597 31.653952 -0.410446
2005-10-03 09:16:00 51°20.59 2°58.058 -999 4.040597 31.6546 -0.410446
2005-10-03 09:16:05 51°20.599 2°58.08 -999 4.040493 31.653694 -0.410446
2005-10-03 09:16:10 51°20.607 2°58.102 -999 4.040493 31.653694 -0.410446
2005-10-03 09:16:15 51°20.616 2°58.124 -999 4.040493 31.652399 -0.410446
2005-10-03 09:16:20 51°20.624 2°58.146 -999 4.040597 31.652656 -0.410446
2005-10-03 09:16:25 51°20.632 2°58.169 -999 4.040597 31.652656 -0.410446
2005-10-03 09:16:30 51°20.641 2°58.191 -999 4.040597 31.652656 -0.410446
2005-10-03 09:16:34 51°20.648 2°58.208 -999 4.040597 31.653304 -0.410446
2005-10-03 09:16:40 51°20.658 2°58.234 -999 4.040597 31.653304 -0.410446
2005-10-03 09:16:45 51°20.666 2°58.257 -999 4.040493 31.652399 -0.444155
2005-10-03 09:16:50 51°20.675 2°58.278 -999 4.040286 31.64994 -0.444155
2005-10-03 09:16:55 51°20.683 2°58.3 -999 4.040182 31.648387 -0.444155
2005-10-03 09:17:00 51°20.692 2°58.322 -999 4.039975 31.646577 -0.477864
2005-10-03 09:17:05 51°20.701 2°58.344 -999 4.039871 31.646319 -0.477864
2005-10-03 09:17:10 51°20.709 2°58.367 -999 4.039871 31.646319 -0.477864
2005-10-03 09:17:15 51°20.718 2°58.388 -999 4.03956 31.644251 -0.477864
2005-10-03 09:17:20 51°20.727 2°58.41 -999 4.039457 31.642698 -0.511574
2005-10-03 09:17:25 51°20.736 2°58.433 -999 4.039353 31.64244 -0.511574
2005-10-03 09:17:30 51°20.744 2°58.454 -999 4.039249 31.642183 -0.511574
2005-10-03 09:17:35 51°20.754 2°58.476 -999 4.039146 31.641277 -0.511574
2005-10-03 09:17:40 51°20.762 2°58.498 -999 4.039146 31.641277 -0.511574
2005-10-03 09:17:45 51°20.771 2°58.521 -999 4.038938 31.64141 -0.511574
2005-10-03 09:17:50 51°20.779 2°58.543 -999 4.038835 31.641152 -0.511574
2005-10-03 09:17:54 51°20.786 2°58.561 -999 4.038731 31.640247 -0.511574
2005-10-03 09:18:00 51°20.797 2°58.587 -999 4.038627 31.639342 -0.511574
2005-10-03 09:18:05 51°20.806 2°58.608 -999 4.03842 31.638179 -0.511574
2005-10-03 09:18:10 51°20.815 2°58.631 -999 4.03842 31.638179 -0.511574
2005-10-03 09:18:15 51°20.823 2°58.652 -999 4.038109 31.63611 -0.511574
2005-10-03 09:18:20 51°20.832 2°58.675 -999 4.037798 31.634042 -0.511574
2005-10-03 09:18:25 51°20.839 2°58.698 -999 4.037591 31.632231 -0.511574
2005-10-03 09:18:30 51°20.846 2°58.721 -999 4.037383 31.631068 -0.511574
2005-10-03 09:18:35 51°20.854 2°58.745 -999 4.037072 31.627705 -0.511574
2005-10-03 09:18:40 51°20.861 2°58.768 -999 4.037072 31.627705 -0.511574
2005-10-03 09:18:45 51°20.868 2°58.791 -999 4.036865 31.626541 -0.511574
2005-10-03 09:18:50 51°20.875 2°58.814 -999 4.036658 31.625378 -0.511574
2005-10-03 09:18:55 51°20.882 2°58.838 -999 4.036347 31.622015 -0.511574
2005-10-03 09:19:00 51°20.891 2°58.861 -999 4.036139 31.620851 -0.511574
2005-10-03 09:19:05 51°20.899 2°58.883 -999 4.035828 31.618783 -0.477864
2005-10-03 09:19:10 51°20.907 2°58.906 -999 4.035828 31.618783 -0.477864
2005-10-03 09:19:15 51°20.914 2°58.929 -999 4.035517 31.616714 -0.511574
2005-10-03 09:19:20 51°20.922 2°58.952 -999 4.035414 31.617103 -0.511574
2005-10-03 09:19:25 51°20.93 2°58.975 -999 4.035207 31.61594 -0.511574
2005-10-03 09:19:30 51°20.937 2°58.999 -999 4.035103 31.615682 -0.511574
2005-10-03 09:19:34 51°20.942 2°59.017 -999 4.034896 31.613871 -0.477864
2005-10-03 09:19:40 51°20.951 2°59.046 -999 4.034896 31.613871 -0.477864
2005-10-03 09:19:45 51°20.959 2°59.069 -999 4.034792 31.612966 -0.477864
2005-10-03 09:19:50 51°20.966 2°59.091 -999 4.034688 31.611413 -0.477864
2005-10-03 09:19:54 51°20.973 2°59.11 -999 4.034377 31.608697 -0.477864
2005-10-03 09:20:00 51°20.982 2°59.137 -999 4.03417 31.608181 -0.477864
2005-10-03 09:20:05 51°20.989 2°59.161 -999 4.033755 31.605206 -0.477864
2005-10-03 09:20:10 51°20.997 2°59.184 -999 4.033755 31.605206 -0.477864
2005-10-03 09:20:14 51°21.003 2°59.203 -999 4.033444 31.60249 -0.477864
2005-10-03 09:20:20 51°21.012 2°59.23 -999 4.033237 31.601327 -0.477864
2005-10-03 09:20:25 51°21.02 2°59.253 -999 4.032926 31.599257 -0.477864
2005-10-03 09:20:30 51°21.028 2°59.276 -999 4.032615 31.596541 -0.477864
2005-10-03 09:20:34 51°21.034 2°59.294 -999 4.032304 31.594472 -0.477864
2005-10-03 09:20:40 51°21.043 2°59.322 -999 4.032304 31.594472 -0.477864
2005-10-03 09:20:45 51°21.051 2°59.345 -999 4.031889 31.590851 -0.477864
2005-10-03 09:20:50 51°21.058 2°59.368 -999 4.031371 31.587618 -0.477864
2005-10-03 09:20:55 51°21.066 2°59.391 -999 4.030956 31.584643 -0.477864
2005-10-03 09:21:00 51°21.074 2°59.415 -999 4.030749 31.581538 -0.477864
2005-10-03 09:21:05 51°21.082 2°59.437 -999 4.030542 31.579081 -0.477864
2005-10-03 09:21:10 51°21.09 2°59.461 -999 4.030542 31.579081 -0.477864
2005-10-03 09:21:15 51°21.097 2°59.485 -999 4.030438 31.578176 -0.477864
2005-10-03 09:21:20 51°21.104 2°59.508 -999 4.030334 31.577917 -0.477864
2005-10-03 09:21:25 51°21.112 2°59.532 -999 4.030023 31.575848 -0.477864
2005-10-03 09:21:30 51°21.119 2°59.555 -999 4.029712 31.573778 -0.477864
2005-10-03 09:21:35 51°21.127 2°59.579 -999 4.029298 31.570157 -0.477864
2005-10-03 09:21:40 51°21.135 2°59.602 -999 4.029298 31.570157 -0.477864
2005-10-03 09:21:45 51°21.142 2°59.626 -999 4.028987 31.568087 -0.477864
2005-10-03 09:21:50 51°21.15 2°59.649 -999 4.028676 31.566018 -0.477864
2005-10-03 09:21:55 51°21.158 2°59.672 -999 4.028365 31.563302 -0.477864
2005-10-03 09:22:00 51°21.165 2°59.696 -999 4.028054 31.560586 -0.477864
2005-10-03 09:22:05 51°21.173 2°59.72 -999 4.027847 31.559422 -0.477864
2005-10-03 09:22:10 51°21.18 2°59.743 -999 4.027847 31.559422 -0.477864
2005-10-03 09:22:14 51°21.187 2°59.762 -999 4.027743 31.55787 -0.444155
2005-10-03 09:22:20 51°21.198 2°59.788 -999 4.027536 31.556059 -0.477864
2005-10-03 09:22:25 51°21.208 2°59.808 -999 4.027536 31.555413 -0.477864
2005-10-03 09:22:30 51°21.219 2°59.827 -999 4.027432 31.554508 -0.444155
2005-10-03 09:22:35 51°21.231 2°59.844 -999 4.027328 31.552956 -0.477864
2005-10-03 09:22:40 51°21.244 2°59.859 -999 4.027328 31.552956 -0.477864
2005-10-03 09:22:45 51°21.258 2°59.872 -999 4.027225 31.552051 -0.444155
2005-10-03 09:22:50 51°21.272 2°59.884 -999 4.027121 31.552438 -0.444155
2005-10-03 09:22:54 51°21.283 2°59.894 -999 4.027017 31.552179 -0.444155
2005-10-03 09:23:00 51°21.301 2°59.907 -999 4.026914 31.55192 -0.444155
2005-10-03 09:23:05 51°21.315 2°59.92 -999 4.026706 31.550109 -0.444155
2005-10-03 09:23:10 51°21.329 2°59.932 -999 4.026706 31.550109 -0.444155
2005-10-03 09:23:15 51°21.344 2°59.945 -999 4.026603 31.54985 -0.444155
2005-10-03 09:23:20 51°21.357 2°59.959 -999 4.026603 31.549204 -0.410446
2005-10-03 09:23:25 51°21.372 2°59.972 -999 4.026499 31.547007 -0.444155
2005-10-03 09:23:30 51°21.386 2°59.985 -999 4.026603 31.545974 -0.444155
2005-10-03 09:23:34 51°21.398 2°59.995 -999 4.026706 31.545587 -0.444155
2005-10-03 09:23:40 51°21.415 3°0.011 -999 4.026706 31.545587 -0.444155
2005-10-03 09:23:45 51°21.43 3°0.023 -999 4.02681 31.5452 -0.410446
2005-10-03 09:23:50 51°21.444 3°0.037 -999 4.02681 31.544554 -0.410446
2005-10-03 09:23:55 51°21.458 3°0.049 -999 4.02681 31.544554 -0.410446
2005-10-03 09:24:00 51°21.473 3°0.063 -999 4.026914 31.545459 -0.410446
2005-10-03 09:24:04 51°21.484 3°0.073 -999 4.026914 31.546105 -0.410446
2005-10-03 09:24:10 51°21.501 3°0.089 -999 4.026914 31.546105 -0.410446
2005-10-03 09:24:15 51°21.516 3°0.102 -999 4.026914 31.546105 -0.410446
2005-10-03 09:24:20 51°21.53 3°0.116 -999 4.027017 31.545718 -0.410446
2005-10-03 09:24:25 51°21.544 3°0.13 -999 4.027225 31.546883 -0.410446
2005-10-03 09:24:30 51°21.558 3°0.143 -999 4.027225 31.546883 -0.410446
2005-10-03 09:24:35 51°21.572 3°0.156 -999 4.027432 31.548693 -0.410446
2005-10-03 09:24:40 51°21.588 3°0.169 -999 4.027432 31.548693 -0.410446
2005-10-03 09:24:45 51°21.602 3°0.181 -999 4.027639 31.550503 -0.410446
2005-10-03 09:24:50 51°21.616 3°0.193 -999 4.027846 31.550375 -0.410446
2005-10-03 09:24:55 51°21.631 3°0.206 -999 4.028261 31.553996 -0.410446
2005-10-03 09:25:00 51°21.645 3°0.218 -999 4.028572 31.556711 -0.376736
2005-10-03 09:25:05 51°21.659 3°0.231 -999 4.028883 31.55878 -0.376736
2005-10-03 09:25:10 51°21.673 3°0.246 -999 4.028883 31.55878 -0.376736
2005-10-03 09:25:14 51°21.685 3°0.257 -999 4.029298 31.560462 -0.376736
2005-10-03 09:25:20 51°21.701 3°0.273 -999 4.029712 31.563436 -0.410446
2005-10-03 09:25:25 51°21.716 3°0.286 -999 4.030231 31.566669 -0.410446
2005-10-03 09:25:30 51°21.73 3°0.3 -999 4.030645 31.568997 -0.376736
2005-10-03 09:25:35 51°21.744 3°0.313 -999 4.031267 31.573781 -0.376736
2005-10-03 09:25:40 51°21.759 3°0.327 -999 4.031267 31.573781 -0.376736
2005-10-03 09:25:45 51°21.773 3°0.339 -999 4.031682 31.578047 -0.343027
2005-10-03 09:25:50 51°21.787 3°0.354 -999 4.031786 31.578306 -0.343027
2005-10-03 09:25:55 51°21.801 3°0.366 -999 4.032096 31.579728 -0.343027
2005-10-03 09:26:00 51°21.816 3°0.38 -999 4.032304 31.581538 -0.343027
2005-10-03 09:26:05 51°21.83 3°0.394 -999 4.032718 31.584512 -0.343027
2005-10-03 09:26:10 51°21.845 3°0.407 -999 4.032718 31.584512 -0.343027
2005-10-03 09:26:15 51°21.859 3°0.42 -999 4.032926 31.585675 -0.343027
2005-10-03 09:26:20 51°21.874 3°0.432 -999 4.033237 31.58839 -0.343027
2005-10-03 09:26:25 51°21.888 3°0.446 -999 4.033548 31.591752 -0.343027
2005-10-03 09:26:30 51°21.904 3°0.458 -999 4.033859 31.594467 -0.343027
2005-10-03 09:26:35 51°21.918 3°0.47 -999 4.03417 31.597182 -0.343027
2005-10-03 09:26:40 51°21.933 3°0.482 -999 4.03417 31.597182 -0.343027
2005-10-03 09:26:45 51°21.947 3°0.495 -999 4.034481 31.600544 -0.343027
2005-10-03 09:26:50 51°21.962 3°0.509 -999 4.034688 31.602354 -0.343027
2005-10-03 09:26:54 51°21.974 3°0.52 -999 4.035103 31.605328 -0.343027
2005-10-03 09:27:00 51°21.991 3°0.536 -999 4.03531 31.607138 -0.343027
2005-10-03 09:27:05 51°22.006 3°0.547 -999 4.035621 31.609206 -0.343027
2005-10-03 09:27:10 51°22.02 3°0.559 -999 4.035621 31.609206 -0.343027
2005-10-03 09:27:15 51°22.035 3°0.571 -999 4.035725 31.609465 -0.309317
2005-10-03 09:27:20 51°22.05 3°0.583 -999 4.035932 31.609981 -0.309317
2005-10-03 09:27:25 51°22.064 3°0.596 -999 4.03645 31.614506 -0.275608
2005-10-03 09:27:30 51°22.078 3°0.611 -999 4.037072 31.620584 -0.275608
2005-10-03 09:27:34 51°22.089 3°0.621 -999 4.038731 31.635066 -0.241899
2005-10-03 09:27:40 51°22.107 3°0.637 -999 4.038731 31.635066 -0.241899
2005-10-03 09:27:45 51°22.121 3°0.648 -999 4.040182 31.646444 -0.241899
2005-10-03 09:27:50 51°22.136 3°0.661 -999 4.041841 31.660928 -0.241899
2005-10-03 09:27:55 51°22.151 3°0.673 -999 4.044018 31.679291 -0.208189
2005-10-03 09:28:00 51°22.165 3°0.686 -999 4.045987 31.696493 -0.208189
2005-10-03 09:28:05 51°22.18 3°0.699 -999 4.047957 31.714994 -0.208189
2005-10-03 09:28:10 51°22.194 3°0.711 -999 4.047957 31.714994 -0.208189
2005-10-03 09:28:15 51°22.208 3°0.725 -999 4.050134 31.734661 -0.208189
2005-10-03 09:28:20 51°22.223 3°0.737 -999 4.051689 31.748245 -0.208189
2005-10-03 09:28:25 51°22.237 3°0.749 -999 4.052726 31.757302 -0.208189
2005-10-03 09:28:30 51°22.252 3°0.761 -999 4.053762 31.76636 -0.241899
2005-10-03 09:28:35 51°22.267 3°0.774 -999 4.055006 31.77853 -0.241899
2005-10-03 09:28:40 51°22.282 3°0.787 -999 4.055006 31.77853 -0.241899
2005-10-03 09:28:45 51°22.295 3°0.799 -999 4.055939 31.786683 -0.241899
2005-10-03 09:28:50 51°22.31 3°0.813 -999 4.056769 31.794581 -0.241899
2005-10-03 09:28:55 51°22.325 3°0.825 -999 4.057391 31.800667 -0.241899
2005-10-03 09:29:00 51°22.339 3°0.839 -999 4.057909 31.804546 -0.241899
2005-10-03 09:29:05 51°22.353 3°0.852 -999 4.05822 31.806613 -0.241899
2005-10-03 09:29:10 51°22.368 3°0.864 -999 4.05822 31.806613 -0.241899
2005-10-03 09:29:15 51°22.382 3°0.878 -999 4.058842 31.812049 -0.241899
2005-10-03 09:29:20 51°22.396 3°0.891 -999 4.059568 31.819042 -0.275608
2005-10-03 09:29:25 51°22.41 3°0.904 -999 4.060086 31.824224 -0.275608
2005-10-03 09:29:30 51°22.425 3°0.918 -999 4.060397 31.826942 -0.275608
2005-10-03 09:29:34 51°22.437 3°0.928 -999 4.060501 31.8285 -0.309317
2005-10-03 09:29:40 51°22.453 3°0.944 -999 4.060501 31.8285 -0.309317
2005-10-03 09:29:45 51°22.468 3°0.957 -999 4.060086 31.825527 -0.309317
2005-10-03 09:29:50 51°22.482 3°0.971 -999 4.059361 31.819836 -0.309317
2005-10-03 09:29:55 51°22.497 3°0.984 -999 4.058531 31.811936 -0.309317
2005-10-03 09:30:00 51°22.511 3°0.997 -999 4.057598 31.803781 -0.309317
2005-10-03 09:30:05 51°22.526 3°1.01 -999 4.056769 31.796533 -0.309317
2005-10-03 09:30:10 51°22.54 3°1.023 -999 4.056769 31.796533 -0.309317
2005-10-03 09:30:15 51°22.555 3°1.035 -999 4.056147 31.791098 -0.343027
2005-10-03 09:30:20 51°22.569 3°1.049 -999 4.055732 31.788775 -0.343027
2005-10-03 09:30:25 51°22.583 3°1.062 -999 4.055318 31.785802 -0.343027
2005-10-03 09:30:30 51°22.597 3°1.076 -999 4.05511 31.784641 -0.343027
2005-10-03 09:30:35 51°22.611 3°1.09 -999 4.054799 31.781923 -0.343027
2005-10-03 09:30:40 51°22.626 3°1.104 -999 4.054799 31.781923 -0.343027
2005-10-03 09:30:45 51°22.64 3°1.117 -999 4.054488 31.779856 -0.343027
2005-10-03 09:30:50 51°22.655 3°1.131 -999 4.054385 31.77895 -0.343027
2005-10-03 09:30:55 51°22.67 3°1.144 -999 4.054177 31.777138 -0.343027
2005-10-03 09:31:00 51°22.684 3°1.158 -999 4.054074 31.776882 -0.343027
2005-10-03 09:31:05 51°22.699 3°1.171 -999 4.053866 31.775721 -0.376736
2005-10-03 09:31:10 51°22.714 3°1.184 -999 4.053866 31.775721 -0.376736
2005-10-03 09:31:15 51°22.728 3°1.198 -999 4.053763 31.774164 -0.376736
2005-10-03 09:31:20 51°22.742 3°1.211 -999 4.053866 31.77507 -0.376736
2005-10-03 09:31:25 51°22.757 3°1.224 -999 4.054177 31.778439 -0.376736
2005-10-03 09:31:30 51°22.772 3°1.236 -999 4.054592 31.782063 -0.376736
2005-10-03 09:31:34 51°22.783 3°1.246 -999 4.055214 31.786848 -0.376736
2005-10-03 09:31:40 51°22.8 3°1.262 -999 4.055214 31.786848 -0.376736
2005-10-03 09:31:45 51°22.815 3°1.275 -999 4.056043 31.793446 -0.376736
2005-10-03 09:31:50 51°22.829 3°1.289 -999 4.056976 31.80095 -0.343027
2005-10-03 09:31:55 51°22.844 3°1.303 -999 4.057702 31.80599 -0.343027
2005-10-03 09:32:00 51°22.858 3°1.317 -999 4.05905 31.817117 -0.343027
2005-10-03 09:32:05 51°22.873 3°1.33 -999 4.060086 31.825527 -0.343027
2005-10-03 09:32:10 51°22.887 3°1.343 -999 4.060086 31.825527 -0.343027
2005-10-03 09:32:15 51°22.902 3°1.356 -999 4.061227 31.834843 -0.343027
2005-10-03 09:32:20 51°22.916 3°1.37 -999 4.06216 31.842346 -0.376736
2005-10-03 09:32:25 51°22.931 3°1.383 -999 4.0633 31.851662 -0.376736
2005-10-03 09:32:30 51°22.945 3°1.396 -999 4.064544 31.862537 -0.343027
2005-10-03 09:32:35 51°22.96 3°1.411 -999 4.065684 31.872505 -0.343027
2005-10-03 09:32:40 51°22.974 3°1.424 -999 4.065684 31.872505 -0.343027
2005-10-03 09:32:45 51°22.989 3°1.437 -999 4.066825 31.882475 -0.343027
2005-10-03 09:32:50 51°23.003 3°1.45 -999 4.067861 31.890885 -0.343027
2005-10-03 09:32:55 51°23.017 3°1.463 -999 4.068898 31.89799 -0.343027
2005-10-03 09:33:00 51°23.032 3°1.476 -999 4.070142 31.90756 -0.343027
2005-10-03 09:33:05 51°23.046 3°1.49 -999 4.071386 31.917129 -0.343027
2005-10-03 09:33:10 51°23.061 3°1.503 -999 4.071386 31.917129 -0.343027
2005-10-03 09:33:15 51°23.076 3°1.517 -999 4.072838 31.928511 -0.343027
2005-10-03 09:33:20 51°23.089 3°1.53 -999 4.073563 31.932895 -0.343027
2005-10-03 09:33:25 51°23.104 3°1.544 -999 4.074289 31.937279 -0.343027
2005-10-03 09:33:30 51°23.118 3°1.558 -999 4.075222 31.944128 -0.343027
2005-10-03 09:33:35 51°23.132 3°1.57 -999 4.075948 31.948511 -0.343027
2005-10-03 09:33:40 51°23.147 3°1.585 -999 4.075948 31.948511 -0.343027
2005-10-03 09:33:45 51°23.162 3°1.598 -999 4.076881 31.95536 -0.343027
2005-10-03 09:33:50 51°23.175 3°1.611 -999 4.077503 31.95949 -0.343027
2005-10-03 09:33:55 51°23.19 3°1.625 -999 4.078228 31.964525 -0.376736
2005-10-03 09:34:00 51°23.205 3°1.639 -999 4.07885 31.969963 -0.376736
2005-10-03 09:34:05 51°23.218 3°1.652 -999 4.079576 31.975653 -0.376736
2005-10-03 09:34:10 51°23.233 3°1.666 -999 4.079576 31.975653 -0.376736
2005-10-03 09:34:15 51°23.247 3°1.678 -999 4.080198 31.98109 -0.376736
2005-10-03 09:34:20 51°23.262 3°1.692 -999 4.080509 31.983155 -0.376736
2005-10-03 09:34:25 51°23.276 3°1.705 -999 4.081131 31.988593 -0.376736
2005-10-03 09:34:30 51°23.29 3°1.719 -999 4.081753 31.994031 -0.410446
2005-10-03 09:34:34 51°23.302 3°1.729 -999 4.082168 31.997656 -0.376736
2005-10-03 09:34:40 51°23.319 3°1.745 -999 4.082168 31.997656 -0.376736
2005-10-03 09:34:45 51°23.334 3°1.758 -999 4.082686 32.000879 -0.376736
2005-10-03 09:34:50 51°23.348 3°1.771 -999 4.083205 32.00541 -0.376736
2005-10-03 09:34:55 51°23.363 3°1.785 -999 4.083723 32.009287 -0.376736
2005-10-03 09:35:00 51°23.376 3°1.799 -999 4.084345 32.013416 -0.410446
2005-10-03 09:35:05 51°23.391 3°1.812 -999 4.085589 32.024947 -0.410446
2005-10-03 09:35:10 51°23.405 3°1.826 -999 4.085589 32.024947 -0.410446
2005-10-03 09:35:15 51°23.42 3°1.839 -999 4.086937 32.036076 -0.410446
2005-10-03 09:35:20 51°23.434 3°1.853 -999 4.088077 32.044736 -0.410446
2005-10-03 09:35:25 51°23.449 3°1.866 -999 4.089529 32.05677 -0.444155
2005-10-03 09:35:30 51°23.463 3°1.88 -999 4.091395 32.07112 -0.444155
2005-10-03 09:35:35 51°23.477 3°1.894 -999 4.093054 32.084312 -0.444155
2005-10-03 09:35:40 51°23.492 3°1.907 -999 4.093054 32.084312 -0.444155
2005-10-03 09:35:45 51°23.507 3°1.921 -999 4.094194 32.092314 -0.477864
2005-10-03 09:35:50 51°23.521 3°1.933 -999 4.095542 32.10213 -0.444155
2005-10-03 09:35:55 51°23.536 3°1.947 -999 4.097512 32.117384 -0.444155
2005-10-03 09:36:00 51°23.55 3°1.96 -999 4.098652 32.125385 -0.477864
2005-10-03 09:36:05 51°23.565 3°1.974 -999 4.099896 32.134292 -0.444155
2005-10-03 09:36:10 51°23.579 3°1.988 -999 4.099896 32.134292 -0.444155
2005-10-03 09:36:15 51°23.594 3°2.001 -999 4.100933 32.141386 -0.444155
2005-10-03 09:36:20 51°23.608 3°2.014 -999 4.101866 32.146915 -0.444155
2005-10-03 09:36:25 51°23.623 3°2.028 -999 4.102696 32.151538 -0.444155
2005-10-03 09:36:30 51°23.637 3°2.041 -999 4.103732 32.15863 -0.444155
2005-10-03 09:36:34 51°23.649 3°2.051 -999 4.104562 32.164566 -0.444155
2005-10-03 09:36:40 51°23.667 3°2.067 -999 4.104562 32.164566 -0.444155
2005-10-03 09:36:45 51°23.681 3°2.08 -999 4.105495 32.170751 -0.444155
2005-10-03 09:36:50 51°23.696 3°2.094 -999 4.106221 32.175781 -0.444155
2005-10-03 09:36:55 51°23.711 3°2.107 -999 4.106843 32.179903 -0.444155
2005-10-03 09:37:00 51°23.725 3°2.121 -999 4.107568 32.184932 -0.444155
2005-10-03 09:37:05 51°23.739 3°2.135 -999 4.108501 32.192432 -0.444155
2005-10-03 09:37:10 51°23.753 3°2.148 -999 4.108501 32.192432 -0.444155
2005-10-03 09:37:15 51°23.768 3°2.162 -999 4.109435 32.199273 -0.444155
2005-10-03 09:37:20 51°23.782 3°2.176 -999 4.110471 32.206362 -0.444155
2005-10-03 09:37:25 51°23.797 3°2.19 -999 4.112027 32.217324 -0.444155
2005-10-03 09:37:30 51°23.811 3°2.204 -999 4.113478 32.227379 -0.444155
2005-10-03 09:37:35 51°23.825 3°2.217 -999 4.114619 32.234715 -0.477864
2005-10-03 09:37:40 51°23.84 3°2.231 -999 4.114619 32.234715 -0.477864
2005-10-03 09:37:45 51°23.854 3°2.245 -999 4.11607 32.244109 -0.477864
2005-10-03 09:37:50 51°23.868 3°2.259 -999 4.117418 32.253255 -0.477864
2005-10-03 09:37:55 51°23.882 3°2.273 -999 4.118455 32.259682 -0.477864
2005-10-03 09:38:00 51°23.897 3°2.286 -999 4.119595 32.266356 -0.477864
2005-10-03 09:38:05 51°23.911 3°2.299 -999 4.120424 32.271628 -0.477864
2005-10-03 09:38:10 51°23.926 3°2.312 -999 4.120424 32.271628 -0.477864
2005-10-03 09:38:15 51°23.941 3°2.325 -999 4.12115 32.275335 -0.511574
2005-10-03 09:38:20 51°23.955 3°2.338 -999 4.12198 32.281265 -0.511574
2005-10-03 09:38:25 51°23.97 3°2.351 -999 4.122602 32.285383 -0.511574
2005-10-03 09:38:30 51°23.984 3°2.365 -999 4.122913 32.286783 -0.511574
2005-10-03 09:38:35 51°23.999 3°2.378 -999 4.122913 32.286124 -0.511574
2005-10-03 09:38:40 51°24.014 3°2.391 -999 4.122913 32.286124 -0.511574
2005-10-03 09:38:45 51°24.028 3°2.404 -999 4.122083 32.2769 -0.511574
2005-10-03 09:38:50 51°24.042 3°2.418 -999 4.122809 32.282582 -0.511574
2005-10-03 09:38:54 51°24.054 3°2.429 -999 4.122602 32.28077 -0.511574
2005-10-03 09:39:00 51°24.071 3°2.446 -999 4.122291 32.278712 -0.511574
2005-10-03 09:39:05 51°24.086 3°2.46 -999 4.12198 32.276653 -0.511574
2005-10-03 09:39:10 51°24.1 3°2.474 -999 4.12198 32.276653 -0.511574
2005-10-03 09:39:15 51°24.115 3°2.488 -999 4.121565 32.273029 -0.477864
2005-10-03 09:39:20 51°24.129 3°2.502 -999 4.121358 32.271217 -0.477864
2005-10-03 09:39:25 51°24.144 3°2.516 -999 4.121046 32.267841 -0.511574
2005-10-03 09:39:30 51°24.158 3°2.53 -999 4.120839 32.26603 -0.477864
2005-10-03 09:39:35 51°24.172 3°2.545 -999 4.120735 32.264465 -0.477864
2005-10-03 09:39:40 51°24.186 3°2.559 -999 4.120735 32.264465 -0.477864
2005-10-03 09:39:45 51°24.201 3°2.574 -999 4.121046 32.266524 -0.477864
2005-10-03 09:39:50 51°24.215 3°2.588 -999 4.121461 32.268172 -0.477864
2005-10-03 09:39:55 51°24.23 3°2.601 -999 4.121876 32.270478 -0.477864
2005-10-03 09:40:00 51°24.244 3°2.615 -999 4.122083 32.270972 -0.444155
2005-10-03 09:40:05 51°24.258 3°2.628 -999 4.121979 32.268749 -0.477864
2005-10-03 09:40:10 51°24.273 3°2.642 -999 4.121979 32.268749 -0.477864
2005-10-03 09:40:14 51°24.284 3°2.653 -999 4.121772 32.266938 -0.444155
2005-10-03 09:40:20 51°24.301 3°2.668 -999 4.121357 32.263974 -0.444155
2005-10-03 09:40:25 51°24.316 3°2.682 -999 4.12115 32.262163 -0.477864
2005-10-03 09:40:30 51°24.331 3°2.695 -999 4.121046 32.261257 -0.444155
2005-10-03 09:40:34 51°24.342 3°2.706 -999 4.12115 32.262821 -0.444155
2005-10-03 09:40:40 51°24.36 3°2.721 -999 4.12115 32.262821 -0.444155
2005-10-03 09:40:45 51°24.374 3°2.734 -999 4.121254 32.263068 -0.444155
2005-10-03 09:40:50 51°24.389 3°2.747 -999 4.121565 32.264469 -0.444155
2005-10-03 09:40:55 51°24.404 3°2.759 -999 4.121979 32.266774 -0.444155
2005-10-03 09:41:00 51°24.419 3°2.772 -999 4.122394 32.268422 -0.444155
2005-10-03 09:41:05 51°24.434 3°2.786 -999 4.122705 32.269822 -0.410446
2005-10-03 09:41:10 51°24.448 3°2.798 -999 4.122705 32.269822 -0.410446
2005-10-03 09:41:15 51°24.463 3°2.811 -999 4.123016 32.271222 -0.410446
2005-10-03 09:41:20 51°24.478 3°2.825 -999 4.12312 32.271469 -0.410446
2005-10-03 09:41:25 51°24.492 3°2.838 -999 4.12312 32.270811 -0.410446
2005-10-03 09:41:30 51°24.507 3°2.852 -999 4.123224 32.270399 -0.376736
2005-10-03 09:41:35 51°24.521 3°2.866 -999 4.123431 32.270894 -0.376736
2005-10-03 09:41:40 51°24.536 3°2.88 -999 4.123431 32.270894 -0.376736
2005-10-03 09:41:45 51°24.55 3°2.894 -999 4.123535 32.270483 -0.376736
2005-10-03 09:41:50 51°24.565 3°2.908 -999 4.123535 32.269825 -0.376736
2005-10-03 09:41:55 51°24.579 3°2.921 -999 4.123742 32.270319 -0.376736
2005-10-03 09:42:00 51°24.594 3°2.934 -999 4.123949 32.271472 -0.376736
2005-10-03 09:42:05 51°24.609 3°2.948 -999 4.124053 32.271719 -0.376736
2005-10-03 09:42:10 51°24.624 3°2.961 -999 4.124053 32.271719 -0.376736
2005-10-03 09:42:15 51°24.639 3°2.975 -999 4.124157 32.271966 -0.343027
2005-10-03 09:42:20 51°24.653 3°2.987 -999 4.12426 32.272213 -0.376736
2005-10-03 09:42:25 51°24.668 3°3.001 -999 4.124468 32.272708 -0.343027
2005-10-03 09:42:30 51°24.682 3°3.014 -999 4.124468 32.272049 -0.343027
2005-10-03 09:42:34 51°24.694 3°3.024 -999 4.124571 32.271639 -0.343027
2005-10-03 09:42:40 51°24.711 3°3.04 -999 4.124571 32.271639 -0.343027
2005-10-03 09:42:45 51°24.726 3°3.054 -999 4.124675 32.271886 -0.343027
2005-10-03 09:42:50 51°24.74 3°3.066 -999 4.124675 32.271228 -0.343027
2005-10-03 09:42:55 51°24.755 3°3.08 -999 4.124571 32.269007 -0.343027
2005-10-03 09:43:00 51°24.769 3°3.093 -999 4.124053 32.263823 -0.343027
2005-10-03 09:43:05 51°24.784 3°3.106 -999 4.123534 32.25864 -0.343027
2005-10-03 09:43:10 51°24.798 3°3.12 -999 4.123534 32.25864 -0.343027
2005-10-03 09:43:15 51°24.812 3°3.133 -999 4.122912 32.252553 -0.343027
2005-10-03 09:43:20 51°24.826 3°3.147 -999 4.12229 32.246465 -0.343027
2005-10-03 09:43:25 51°24.84 3°3.161 -999 4.121875 32.241531 -0.343027
2005-10-03 09:43:30 51°24.854 3°3.175 -999 4.121253 32.235445 -0.343027
2005-10-03 09:43:35 51°24.869 3°3.189 -999 4.120735 32.230263 -0.343027
2005-10-03 09:43:40 51°24.882 3°3.203 -999 4.120735 32.230263 -0.343027
2005-10-03 09:43:45 51°24.897 3°3.217 -999 4.120009 32.224586 -0.343027
2005-10-03 09:43:50 51°24.91 3°3.23 -999 4.119283 32.21891 -0.309317
2005-10-03 09:43:54 51°24.922 3°3.241 -999 4.118557 32.212576 -0.275608
2005-10-03 09:44:00 51°24.938 3°3.257 -999 4.117728 32.205338 -0.275608
2005-10-03 09:44:05 51°24.953 3°3.271 -999 4.117106 32.200566 -0.275608
2005-10-03 09:44:10 51°24.967 3°3.285 -999 4.117106 32.200566 -0.275608
2005-10-03 09:44:15 51°24.981 3°3.299 -999 4.116173 32.193736 -0.275608
2005-10-03 09:44:20 51°24.995 3°3.312 -999 4.115136 32.186657 -0.275608
2005-10-03 09:44:25 51°25.009 3°3.326 -999 4.113892 32.178424 -0.275608
2005-10-03 09:44:30 51°25.023 3°3.34 -999 4.112855 32.171344 -0.275608
2005-10-03 09:44:35 51°25.037 3°3.354 -999 4.111611 32.16311 -0.275608
2005-10-03 09:44:40 51°25.051 3°3.367 -999 4.111611 32.16311 -0.275608
2005-10-03 09:44:45 51°25.065 3°3.381 -999 4.110471 32.15578 -0.241899
2005-10-03 09:44:50 51°25.079 3°3.395 -999 4.108915 32.145485 -0.241899
2005-10-03 09:44:55 51°25.093 3°3.408 -999 4.107775 32.138809 -0.241899
2005-10-03 09:45:00 51°25.107 3°3.421 -999 4.106531 32.131227 -0.241899
2005-10-03 09:45:05 51°25.121 3°3.435 -999 4.105494 32.124143 -0.241899
2005-10-03 09:45:10 51°25.135 3°3.449 -999 4.105494 32.124143 -0.241899
2005-10-03 09:45:15 51°25.149 3°3.463 -999 4.104665 32.118869 -0.241899
2005-10-03 09:45:20 51°25.163 3°3.476 -999 4.103524 32.111535 -0.208189
2005-10-03 09:45:25 51°25.177 3°3.49 -999 4.102799 32.10782 -0.208189
2005-10-03 09:45:30 51°25.191 3°3.504 -999 4.101865 32.10164 -0.208189
2005-10-03 09:45:35 51°25.205 3°3.518 -999 4.10114 32.097924 -0.208189
2005-10-03 09:45:40 51°25.219 3°3.532 -999 4.10114 32.097924 -0.208189
2005-10-03 09:45:45 51°25.233 3°3.545 -999 4.100414 32.092898 -0.208189
2005-10-03 09:45:50 51°25.247 3°3.559 -999 4.099481 32.088026 -0.17448
2005-10-03 09:45:55 51°25.261 3°3.573 -999 4.098548 32.082499 -0.14077
2005-10-03 09:46:00 51°25.275 3°3.587 -999 4.097719 32.077876 -0.14077
2005-10-03 09:46:05 51°25.288 3°3.602 -999 4.096578 32.071192 -0.107061
2005-10-03 09:46:10 51°25.301 3°3.618 -999 4.096578 32.071192 -0.107061
2005-10-03 09:46:15 51°25.313 3°3.635 -999 4.095334 32.064256 -0.073352
2005-10-03 09:46:20 51°25.325 3°3.653 -999 4.09409 32.057974 -0.039642
2005-10-03 09:46:25 51°25.336 3°3.672 -999 4.09295 32.051941 -0.005933
2005-10-03 09:46:30 51°25.347 3°3.692 -999 4.091498 32.045155 0.027777
2005-10-03 09:46:35 51°25.357 3°3.713 -999 4.090151 32.037963 0.027777
2005-10-03 09:46:40 51°25.366 3°3.734 -999 4.090151 32.037963 0.027777
2005-10-03 09:46:45 51°25.374 3°3.756 -999 4.089114 32.032179 0.061486
2005-10-03 09:46:50 51°25.383 3°3.779 -999 4.088181 32.026644 0.095195
2005-10-03 09:46:55 51°25.391 3°3.803 -999 4.087144 32.021513 0.095195
2005-10-03 09:47:00 51°25.398 3°3.826 -999 4.086211 32.015978 0.095195
2005-10-03 09:47:05 51°25.406 3°3.85 -999 4.085278 32.011751 0.095195
2005-10-03 09:47:10 51°25.413 3°3.873 -999 4.085278 32.011751 0.095195
2005-10-03 09:47:15 51°25.419 3°3.897 -999 4.084345 32.007523 0.162614
2005-10-03 09:47:20 51°25.426 3°3.921 -999 4.083412 32.003295 0.162614
2005-10-03 09:47:25 51°25.434 3°3.944 -999 4.082686 32.000879 0.196324
2005-10-03 09:47:30 51°25.441 3°3.968 -999 4.081961 31.997807 0.196324
2005-10-03 09:47:34 51°25.446 3°3.987 -999 4.081339 31.995642 0.230033
2005-10-03 09:47:40 51°25.455 3°4.015 -999 4.081339 31.995642 0.230033